GEFSSGP_prec_meanprecacc_282.txt.gz
Total_Precipitation_Accumulation
0.20 0.37 0.64 0.75 1.02 1.53 1.54 1.26 0.81 0.55 0.54 0.63 0.60 0.59 0.74 0.89 1.23 2.25 2.37 2.17 1.45 1.29 1.53 1.55 1.54 1.35 1.23 1.24 1.32 1.24 1.13 1.07 1.18 1.22 1.32 1.46 1.58 1.55 1.51 1.66 1.92 2.16 2.30 2.39 2.47 2.46 2.46 2.34 2.16
0.29 0.46 0.58 0.68 1.22 1.69 1.54 1.19 0.70 0.55 0.45 0.53 0.60 0.54 0.74 0.85 0.89 1.42 1.86 1.69 1.09 0.95 1.13 1.14 1.24 1.20 1.08 0.99 1.05 1.11 1.03 1.06 1.16 1.31 1.52 1.67 1.83 1.82 1.82 1.91 2.04 2.23 2.29 2.30 2.29 2.26 2.18 2.11 1.99
0.26 0.39 0.52 0.67 1.02 1.20 1.07 0.80 0.46 0.39 0.33 0.38 0.51 0.47 0.70 1.11 1.01 1.26 1.48 1.28 0.94 0.85 0.93 1.05 0.98 0.90 0.95 0.93 0.93 1.03 1.08 1.11 1.11 1.26 1.46 1.68 1.99 2.07 2.17 2.26 2.37 2.40 2.25 2.13 2.09 2.07 1.91 1.90 1.86
0.28 0.36 0.36 0.44 0.63 0.67 0.53 0.49 0.35 0.33 0.31 0.31 0.42 0.59 0.95 1.02 0.95 1.10 1.12 1.03 0.76 0.72 0.75 0.79 0.91 0.89 0.92 0.97 0.92 0.96 1.06 1.14 1.19 1.28 1.49 1.69 1.99 2.23 2.44 2.42 2.43 2.36 2.13 2.04 1.96 1.87 1.79 1.85 1.90
0.30 0.29 0.31 0.34 0.39 0.47 0.43 0.37 0.30 0.32 0.29 0.34 0.45 0.83 1.36 1.23 0.90 0.90 0.94 0.86 0.71 0.63 0.70 0.74 0.84 0.88 0.89 0.88 0.93 0.97 0.98 1.14 1.22 1.23 1.40 1.62 1.87 2.25 2.36 2.31 2.22 2.07 1.97 1.91 1.87 1.81 1.73 1.75 1.82
0.18 0.17 0.25 0.24 0.28 0.35 0.35 0.29 0.28 0.25 0.28 0.40 0.58 0.90 1.38 1.35 1.14 1.09 1.11 0.97 0.90 0.70 0.62 0.76 0.88 0.89 0.84 0.79 0.85 0.91 1.00 1.13 1.24 1.26 1.36 1.53 1.74 1.99 2.04 2.00 1.92 1.79 1.81 1.78 1.76 1.76 1.63 1.55 1.68
0.15 0.11 0.14 0.15 0.19 0.26 0.29 0.25 0.24 0.24 0.34 0.51 0.68 1.03 1.34 1.55 1.37 1.21 1.33 1.40 1.19 0.91 0.79 0.82 0.83 0.79 0.78 0.82 0.86 0.98 1.15 1.28 1.34 1.34 1.42 1.65 1.77 1.82 1.73 1.78 1.75 1.71 1.69 1.69 1.60 1.51 1.41 1.34 1.45
0.08 0.08 0.11 0.10 0.12 0.22 0.21 0.20 0.19 0.24 0.38 0.47 0.64 1.06 1.41 1.36 1.34 1.36 1.52 1.65 1.57 1.20 1.05 0.93 0.89 0.88 0.80 0.82 1.00 1.11 1.26 1.45 1.53 1.53 1.66 1.87 1.92 1.82 1.83 1.75 1.78 1.78 1.81 1.75 1.60 1.43 1.34 1.32 1.38
0.05 0.06 0.07 0.07 0.08 0.15 0.14 0.17 0.20 0.19 0.24 0.41 0.60 0.89 1.01 0.96 1.11 1.33 1.53 1.72 1.90 1.65 1.30 1.12 1.01 1.04 1.06 0.95 1.01 1.24 1.40 1.56 1.66 1.91 2.13 2.27 2.18 1.96 2.12 1.97 2.11 2.09 2.08 2.01 1.87 1.71 1.61 1.47 1.42
0.03 0.03 0.04 0.04 0.04 0.06 0.09 0.14 0.19 0.18 0.37 0.64 0.77 0.88 0.80 0.96 1.08 1.32 1.50 1.62 1.77 1.87 1.42 1.30 1.14 1.07 1.11 1.23 1.49 1.67 1.53 1.73 2.02 2.35 2.51 2.69 2.58 2.45 2.09 2.33 2.60 2.74 2.86 2.73 2.55 2.39 2.03 1.63 1.49
0.01 0.03 0.03 0.03 0.02 0.03 0.08 0.09 0.15 0.19 0.52 0.99 1.14 1.15 1.07 1.04 1.19 1.45 1.72 1.79 1.66 1.73 1.49 1.42 1.43 1.45 1.33 1.46 1.69 1.89 1.93 2.12 2.28 2.38 2.54 2.70 2.40 2.32 2.36 2.60 2.89 3.03 3.12 2.95 2.93 2.86 2.42 2.19 2.14
0.01 0.01 0.02 0.02 0.02 0.04 0.07 0.09 0.13 0.22 0.51 0.80 1.08 1.06 1.21 1.19 1.29 1.55 1.89 2.07 2.06 2.19 1.95 1.79 1.83 1.78 1.72 1.70 1.87 2.00 2.04 2.14 2.29 2.44 2.42 2.52 2.62 2.67 2.77 3.04 2.98 3.08 3.21 3.50 3.12 3.22 2.97 2.69 2.50
0.01 0.01 0.02 0.03 0.03 0.04 0.08 0.16 0.16 0.26 0.38 0.58 0.83 0.85 0.92 1.23 1.61 2.01 2.40 2.41 2.54 2.74 2.70 2.44 2.21 2.08 2.07 2.20 2.21 2.11 2.20 2.33 2.44 2.61 2.60 2.57 2.82 2.96 3.02 3.03 3.16 2.93 3.00 3.39 3.48 3.19 3.31 3.31 3.04
0.01 0.01 0.02 0.04 0.04 0.06 0.10 0.22 0.28 0.37 0.46 0.52 0.78 1.01 1.07 1.43 1.77 2.35 3.01 2.92 2.72 2.93 3.02 2.81 2.65 2.53 2.51 2.73 2.78 2.65 2.47 2.68 2.75 2.74 2.68 2.75 2.97 3.29 3.41 3.33 3.42 3.19 2.99 3.18 3.29 3.23 3.80 3.65 3.46
0.02 0.03 0.05 0.07 0.08 0.12 0.17 0.38 0.52 0.52 0.50 0.58 0.88 1.20 1.44 1.59 1.93 2.29 2.68 3.02 3.17 3.27 3.19 3.15 3.13 3.05 3.12 3.19 3.09 2.86 2.78 2.70 2.79 2.87 2.95 2.95 2.97 3.29 3.46 3.63 3.60 3.39 3.15 3.26 3.29 3.46 3.68 3.41 3.27
0.03 0.06 0.10 0.12 0.13 0.15 0.24 0.63 0.63 0.53 0.53 0.84 1.04 1.38 1.70 1.77 2.03 2.44 2.81 3.34 3.59 3.62 3.62 3.62 3.45 3.52 3.63 3.65 3.48 3.27 3.13 2.98 2.83 2.79 2.96 2.99 3.04 3.25 3.46 3.40 3.36 3.49 3.43 3.54 3.72 3.76 3.74 3.60 3.44
0.08 0.10 0.15 0.15 0.18 0.16 0.22 0.47 0.61 0.57 0.76 1.03 1.27 1.58 1.88 2.14 2.59 3.10 3.37 3.47 3.81 4.13 4.30 4.33 4.25 4.09 3.96 3.89 3.83 3.85 3.82 3.58 3.26 3.11 3.13 3.12 2.97 3.07 3.35 3.34 3.45 3.56 3.57 3.58 3.26 3.71 3.68 3.72 3.53
0.11 0.11 0.15 0.19 0.17 0.19 0.27 0.43 0.53 0.61 0.85 1.26 1.64 1.88 2.14 2.55 3.06 3.43 3.69 4.03 4.17 4.43 4.94 4.91 4.74 4.66 4.62 4.52 4.28 4.28 4.05 3.77 3.64 3.54 3.64 3.43 3.24 3.18 3.42 3.40 3.51 3.55 3.65 3.65 3.57 3.82 3.73 3.55 3.47
0.09 0.11 0.16 0.20 0.17 0.21 0.37 0.56 0.61 0.78 1.08 1.40 1.74 1.98 2.32 2.66 3.03 3.47 3.55 3.81 4.13 4.73 5.19 5.44 5.46 5.28 5.00 4.62 4.25 4.07 4.00 3.97 3.82 3.66 3.46 3.32 3.23 3.30 3.64 3.51 3.81 3.71 3.51 3.47 3.53 3.78 3.65 3.37 3.40
0.09 0.12 0.17 0.19 0.17 0.20 0.40 0.59 0.69 1.03 1.35 1.41 1.58 1.72 1.91 2.35 2.69 3.04 3.23 3.33 3.75 4.34 4.78 4.95 4.71 4.61 4.45 4.21 4.11 4.07 4.27 4.00 3.79 3.68 3.49 3.19 3.13 3.23 3.27 3.56 3.47 3.49 3.59 3.49 3.49 3.73 3.55 3.11 3.23
0.08 0.09 0.14 0.20 0.20 0.27 0.41 0.77 0.97 1.19 1.33 1.35 1.45 1.60 1.71 1.99 2.31 2.63 2.79 2.94 3.18 3.31 3.58 3.75 3.91 3.85 3.74 3.73 3.70 3.73 3.97 3.81 3.67 3.57 3.47 3.08 2.88 2.85 2.98 3.07 3.16 3.49 3.42 3.46 3.53 3.48 3.42 3.13 3.05
0.09 0.09 0.09 0.14 0.21 0.35 0.49 1.06 1.31 1.26 1.31 1.43 1.43 1.41 1.65 1.94 1.94 2.06 2.31 2.48 2.77 2.96 3.16 3.21 3.23 3.35 3.38 3.46 3.37 3.20 3.15 3.15 3.15 3.22 3.15 3.06 2.87 2.75 2.78 2.84 2.90 3.01 2.93 3.08 2.82 2.97 3.24 3.37 3.08
0.07 0.07 0.09 0.17 0.27 0.38 0.49 0.81 1.23 1.56 1.62 1.43 1.36 1.25 1.45 1.59 1.50 1.49 1.69 1.84 2.12 2.37 2.61 2.73 2.82 2.91 3.06 3.12 3.06 3.03 2.87 2.90 2.97 3.03 3.03 2.97 2.89 2.83 2.80 2.79 2.80 2.73 2.59 2.71 2.72 2.94 2.97 2.98 2.96
0.06 0.09 0.16 0.30 0.49 0.73 0.61 0.74 1.16 1.52 1.78 1.52 1.30 1.20 1.30 1.28 1.25 1.37 1.52 1.63 1.80 2.10 2.30 2.40 2.52 2.57 2.69 2.75 2.82 2.86 2.84 2.81 2.81 2.84 2.84 2.82 2.81 2.69 2.63 2.60 2.63 2.56 2.52 2.59 2.68 2.81 2.73 2.76 2.91
0.07 0.16 0.51 0.88 1.17 1.19 0.79 0.83 1.17 1.17 1.20 1.23 1.19 1.23 1.24 1.18 1.14 1.14 1.23 1.38 1.57 1.82 2.00 2.05 2.14 2.22 2.23 2.28 2.40 2.52 2.58 2.64 2.51 2.46 2.50 2.51 2.33 2.22 2.29 2.24 2.37 2.37 2.39 2.43 2.56 2.65 2.61 2.74 2.88
0.12 0.17 0.56 0.87 0.91 1.01 0.89 1.15 1.47 1.17 1.07 1.01 1.09 1.19 1.19 1.05 0.98 1.01 1.11 1.17 1.26 1.46 1.69 1.74 1.83 1.93 2.08 2.11 2.17 2.29 2.29 2.31 2.17 2.21 2.24 2.20 1.98 1.90 2.08 2.21 2.26 2.25 2.24 2.30 2.56 2.39 2.41 2.59 2.62
0.16 0.18 0.25 0.48 0.57 0.76 0.98 1.27 1.43 1.12 1.08 1.19 1.31 1.29 1.24 0.99 0.84 0.86 0.87 0.91 0.93 1.05 1.23 1.36 1.62 1.76 1.87 1.95 2.04 2.05 2.01 2.07 2.01 2.04 2.17 2.11 2.08 1.95 2.00 2.04 2.14 2.20 2.31 2.43 2.55 2.37 2.47 2.70 2.59
0.16 0.16 0.20 0.39 0.61 0.81 0.93 1.31 1.62 1.57 1.40 1.33 1.39 1.24 0.97 0.80 0.70 0.65 0.66 0.66 0.75 0.87 0.98 1.13 1.33 1.43 1.54 1.73 1.86 1.76 1.95 2.03 2.01 1.99 1.89 1.92 2.00 1.99 1.87 1.82 1.87 1.92 2.02 2.19 2.34 2.26 2.41 2.66 2.61
0.19 0.22 0.29 0.41 0.45 0.69 1.06 1.28 1.22 1.27 1.20 1.25 1.24 1.06 0.82 0.68 0.62 0.63 0.63 0.66 0.72 0.79 0.94 1.11 1.33 1.46 1.46 1.56 1.69 1.75 1.86 1.98 2.01 1.92 1.81 1.82 1.87 1.92 1.85 1.81 1.80 1.77 1.72 1.83 2.00 2.00 2.22 2.27 2.27
0.17 0.20 0.28 0.43 0.42 0.46 0.73 0.96 0.70 0.75 0.77 0.85 0.91 0.79 0.72 0.69 0.64 0.71 0.76 0.76 0.78 0.87 1.01 1.17 1.30 1.45 1.51 1.63 1.83 1.98 1.94 1.93 1.96 1.92 1.82 1.71 1.64 1.72 1.80 1.84 1.75 1.59 1.62 1.79 1.81 1.87 2.10 2.20 2.17

GEFSSGP_prec_meanprecacc_288.txt.gz
Total_Precipitation_Accumulation
0.20 0.37 0.64 0.76 1.03 1.54 1.55 1.28 0.83 0.58 0.57 0.65 0.61 0.59 0.75 0.90 1.24 2.27 2.39 2.18 1.46 1.31 1.56 1.61 1.61 1.41 1.29 1.30 1.39 1.31 1.20 1.15 1.25 1.31 1.44 1.56 1.68 1.64 1.62 1.78 2.05 2.28 2.42 2.52 2.59 2.56 2.55 2.45 2.30
0.30 0.46 0.59 0.69 1.23 1.70 1.55 1.21 0.73 0.57 0.47 0.54 0.61 0.55 0.74 0.86 0.89 1.43 1.87 1.71 1.10 0.96 1.17 1.19 1.32 1.29 1.18 1.08 1.15 1.22 1.13 1.14 1.23 1.43 1.66 1.79 1.91 1.89 1.91 2.05 2.19 2.36 2.39 2.41 2.40 2.37 2.30 2.24 2.14
0.26 0.39 0.53 0.67 1.02 1.21 1.08 0.82 0.47 0.40 0.34 0.40 0.53 0.48 0.71 1.12 1.02 1.28 1.49 1.29 0.95 0.87 0.96 1.11 1.07 0.98 1.04 1.05 1.08 1.19 1.22 1.20 1.21 1.39 1.59 1.81 2.10 2.17 2.29 2.38 2.49 2.52 2.37 2.25 2.21 2.19 2.04 2.01 1.97
0.28 0.36 0.36 0.45 0.64 0.68 0.54 0.50 0.35 0.33 0.33 0.32 0.43 0.61 0.96 1.03 0.96 1.11 1.13 1.03 0.77 0.74 0.77 0.85 1.01 0.96 0.98 1.03 1.02 1.05 1.17 1.26 1.33 1.41 1.60 1.81 2.13 2.38 2.59 2.56 2.56 2.48 2.27 2.18 2.09 2.00 1.91 1.96 2.01
0.30 0.29 0.31 0.34 0.40 0.48 0.44 0.39 0.31 0.33 0.30 0.35 0.46 0.85 1.38 1.26 0.92 0.91 0.94 0.86 0.72 0.64 0.72 0.78 0.91 0.95 0.95 0.94 1.00 1.03 1.05 1.24 1.36 1.38 1.53 1.74 1.99 2.38 2.49 2.46 2.37 2.19 2.10 2.05 2.02 1.97 1.89 1.90 1.97
0.18 0.17 0.25 0.24 0.28 0.35 0.36 0.31 0.29 0.26 0.29 0.41 0.59 0.91 1.41 1.38 1.17 1.10 1.11 0.97 0.90 0.71 0.64 0.80 0.91 0.93 0.89 0.85 0.91 0.96 1.05 1.21 1.37 1.41 1.48 1.64 1.86 2.11 2.16 2.13 2.07 1.93 1.97 1.96 1.94 1.93 1.82 1.73 1.90
0.15 0.11 0.14 0.15 0.20 0.26 0.29 0.26 0.26 0.26 0.34 0.51 0.68 1.04 1.37 1.58 1.40 1.23 1.34 1.41 1.19 0.93 0.82 0.85 0.85 0.81 0.82 0.89 0.92 1.02 1.19 1.35 1.46 1.49 1.53 1.75 1.88 1.94 1.84 1.89 1.88 1.85 1.88 1.88 1.78 1.70 1.61 1.55 1.73
0.08 0.08 0.11 0.10 0.13 0.22 0.21 0.21 0.20 0.25 0.39 0.47 0.64 1.08 1.44 1.39 1.37 1.38 1.53 1.66 1.58 1.21 1.07 0.95 0.91 0.91 0.83 0.87 1.06 1.17 1.32 1.51 1.61 1.65 1.78 1.96 2.01 1.92 1.93 1.85 1.91 1.93 2.01 1.96 1.86 1.70 1.60 1.60 1.67
0.05 0.06 0.07 0.07 0.08 0.15 0.14 0.17 0.21 0.19 0.24 0.41 0.60 0.90 1.02 0.97 1.12 1.34 1.55 1.73 1.91 1.67 1.32 1.15 1.04 1.07 1.09 0.98 1.06 1.31 1.47 1.62 1.74 2.02 2.27 2.38 2.30 2.11 2.27 2.11 2.26 2.26 2.27 2.23 2.18 2.07 1.92 1.78 1.67
0.03 0.03 0.04 0.04 0.04 0.06 0.10 0.15 0.20 0.18 0.37 0.64 0.78 0.88 0.81 0.97 1.09 1.33 1.51 1.63 1.78 1.89 1.45 1.33 1.17 1.10 1.14 1.26 1.55 1.73 1.59 1.80 2.11 2.43 2.64 2.82 2.71 2.59 2.24 2.49 2.78 2.93 3.07 2.97 2.84 2.68 2.26 1.84 1.69
0.01 0.03 0.03 0.03 0.02 0.03 0.08 0.09 0.15 0.19 0.52 0.99 1.14 1.16 1.08 1.05 1.19 1.46 1.73 1.81 1.68 1.75 1.52 1.46 1.47 1.48 1.36 1.51 1.74 1.95 1.99 2.18 2.35 2.47 2.67 2.85 2.53 2.45 2.50 2.76 3.08 3.23 3.30 3.13 3.14 3.06 2.60 2.34 2.27
0.01 0.01 0.02 0.02 0.02 0.04 0.07 0.09 0.13 0.22 0.51 0.80 1.08 1.06 1.21 1.19 1.30 1.57 1.92 2.11 2.10 2.23 2.00 1.85 1.88 1.82 1.76 1.74 1.92 2.08 2.12 2.20 2.35 2.52 2.51 2.62 2.73 2.80 2.90 3.18 3.16 3.27 3.36 3.66 3.28 3.40 3.13 2.79 2.59
0.01 0.01 0.02 0.03 0.03 0.04 0.08 0.16 0.16 0.26 0.38 0.58 0.83 0.85 0.93 1.24 1.62 2.03 2.42 2.44 2.57 2.80 2.78 2.52 2.27 2.13 2.13 2.26 2.28 2.18 2.28 2.39 2.50 2.67 2.65 2.64 2.91 3.07 3.15 3.17 3.31 3.07 3.11 3.52 3.64 3.36 3.45 3.40 3.12
0.01 0.01 0.02 0.04 0.04 0.06 0.10 0.22 0.28 0.37 0.46 0.52 0.78 1.02 1.07 1.43 1.78 2.36 3.04 2.96 2.76 2.98 3.08 2.86 2.69 2.56 2.56 2.80 2.88 2.74 2.54 2.76 2.80 2.78 2.73 2.81 3.05 3.40 3.57 3.46 3.54 3.30 3.09 3.29 3.48 3.39 3.96 3.75 3.54
0.02 0.03 0.05 0.07 0.08 0.12 0.17 0.38 0.52 0.53 0.50 0.58 0.88 1.21 1.45 1.60 1.94 2.30 2.71 3.05 3.20 3.30 3.22 3.19 3.15 3.07 3.17 3.27 3.19 2.94 2.86 2.76 2.83 2.91 3.00 3.01 3.03 3.39 3.62 3.81 3.74 3.49 3.24 3.39 3.44 3.62 3.86 3.57 3.37
0.03 0.06 0.10 0.13 0.14 0.15 0.24 0.63 0.64 0.53 0.53 0.84 1.04 1.38 1.71 1.78 2.04 2.45 2.82 3.36 3.61 3.64 3.64 3.65 3.47 3.54 3.68 3.73 3.57 3.35 3.20 3.04 2.87 2.83 3.02 3.06 3.12 3.37 3.59 3.56 3.48 3.59 3.51 3.66 3.87 3.93 3.92 3.76 3.58
0.08 0.10 0.15 0.15 0.18 0.16 0.22 0.47 0.61 0.57 0.76 1.03 1.27 1.59 1.89 2.15 2.60 3.10 3.37 3.48 3.83 4.15 4.32 4.35 4.27 4.14 4.07 4.01 3.90 3.91 3.87 3.63 3.30 3.14 3.17 3.17 3.04 3.14 3.42 3.44 3.56 3.66 3.67 3.70 3.40 3.89 3.84 3.86 3.66
0.11 0.11 0.15 0.19 0.17 0.19 0.27 0.43 0.53 0.61 0.85 1.26 1.64 1.88 2.15 2.55 3.06 3.43 3.70 4.04 4.18 4.45 4.96 4.93 4.77 4.73 4.73 4.66 4.34 4.33 4.09 3.80 3.66 3.56 3.66 3.46 3.27 3.22 3.46 3.46 3.57 3.61 3.72 3.77 3.71 3.95 3.86 3.67 3.59
0.09 0.11 0.16 0.20 0.17 0.21 0.37 0.56 0.61 0.78 1.08 1.40 1.74 1.98 2.32 2.66 3.03 3.47 3.55 3.81 4.14 4.74 5.22 5.45 5.48 5.32 5.06 4.69 4.28 4.10 4.04 4.00 3.84 3.68 3.47 3.34 3.27 3.34 3.69 3.56 3.87 3.78 3.57 3.55 3.62 3.85 3.73 3.45 3.47
0.09 0.12 0.17 0.19 0.17 0.20 0.40 0.59 0.69 1.03 1.35 1.41 1.58 1.72 1.91 2.35 2.70 3.04 3.24 3.33 3.76 4.35 4.80 4.97 4.73 4.63 4.48 4.25 4.14 4.11 4.31 4.03 3.82 3.69 3.50 3.21 3.15 3.26 3.29 3.60 3.51 3.54 3.65 3.53 3.53 3.77 3.60 3.16 3.28
0.08 0.09 0.14 0.20 0.20 0.27 0.41 0.77 0.97 1.19 1.33 1.35 1.45 1.60 1.71 1.99 2.31 2.64 2.79 2.94 3.19 3.32 3.60 3.80 3.94 3.87 3.77 3.75 3.73 3.76 4.00 3.83 3.69 3.59 3.48 3.09 2.89 2.86 2.99 3.09 3.19 3.53 3.45 3.49 3.56 3.52 3.45 3.17 3.10
0.09 0.09 0.09 0.14 0.22 0.36 0.50 1.07 1.32 1.27 1.31 1.43 1.43 1.41 1.65 1.95 1.94 2.06 2.31 2.48 2.77 2.96 3.16 3.24 3.27 3.37 3.39 3.47 3.38 3.22 3.17 3.17 3.17 3.24 3.17 3.08 2.88 2.76 2.79 2.86 2.92 3.03 2.94 3.10 2.84 2.99 3.27 3.40 3.11
0.07 0.07 0.09 0.17 0.27 0.38 0.49 0.82 1.23 1.56 1.62 1.43 1.36 1.25 1.45 1.59 1.50 1.49 1.69 1.84 2.12 2.37 2.61 2.74 2.84 2.94 3.08 3.14 3.09 3.06 2.88 2.91 2.99 3.05 3.05 2.99 2.92 2.85 2.81 2.80 2.82 2.74 2.61 2.73 2.75 2.97 3.00 3.01 2.99
0.06 0.09 0.16 0.30 0.49 0.73 0.62 0.74 1.16 1.52 1.78 1.52 1.30 1.20 1.30 1.28 1.25 1.37 1.52 1.63 1.80 2.10 2.30 2.40 2.52 2.57 2.69 2.75 2.85 2.91 2.88 2.84 2.84 2.86 2.86 2.84 2.84 2.72 2.64 2.61 2.66 2.59 2.55 2.62 2.71 2.84 2.77 2.81 2.96
0.07 0.16 0.51 0.89 1.18 1.19 0.79 0.83 1.17 1.17 1.21 1.23 1.19 1.23 1.24 1.18 1.14 1.14 1.23 1.38 1.58 1.82 2.00 2.05 2.15 2.23 2.23 2.28 2.43 2.57 2.63 2.68 2.55 2.50 2.53 2.54 2.38 2.27 2.33 2.27 2.41 2.41 2.43 2.47 2.60 2.68 2.65 2.79 2.94
0.12 0.17 0.56 0.88 0.92 1.01 0.89 1.15 1.47 1.17 1.08 1.01 1.09 1.19 1.19 1.05 0.98 1.01 1.11 1.17 1.26 1.46 1.69 1.74 1.83 1.94 2.09 2.12 2.18 2.31 2.32 2.33 2.21 2.29 2.30 2.25 2.04 1.96 2.14 2.27 2.31 2.29 2.29 2.35 2.61 2.45 2.47 2.66 2.69
0.16 0.18 0.25 0.48 0.57 0.76 0.99 1.27 1.44 1.12 1.09 1.19 1.31 1.29 1.24 0.99 0.84 0.86 0.87 0.91 0.94 1.05 1.23 1.36 1.62 1.77 1.87 1.96 2.05 2.06 2.03 2.09 2.04 2.11 2.27 2.17 2.14 2.00 2.06 2.11 2.21 2.29 2.41 2.54 2.66 2.47 2.56 2.78 2.66
0.16 0.16 0.20 0.39 0.61 0.81 0.94 1.31 1.62 1.57 1.40 1.34 1.40 1.24 0.97 0.80 0.70 0.65 0.66 0.66 0.75 0.87 0.98 1.14 1.34 1.44 1.55 1.74 1.87 1.77 1.96 2.04 2.03 2.03 1.96 2.00 2.08 2.06 1.94 1.90 1.95 2.01 2.10 2.26 2.41 2.31 2.46 2.70 2.65
0.19 0.22 0.29 0.41 0.45 0.69 1.06 1.28 1.23 1.28 1.21 1.25 1.24 1.06 0.82 0.68 0.62 0.63 0.63 0.66 0.72 0.79 0.94 1.12 1.33 1.48 1.48 1.58 1.71 1.76 1.86 1.99 2.02 1.94 1.84 1.88 1.95 2.00 1.93 1.89 1.87 1.84 1.81 1.90 2.05 2.05 2.27 2.31 2.30
0.17 0.20 0.28 0.43 0.42 0.46 0.73 0.96 0.70 0.75 0.77 0.85 0.91 0.79 0.72 0.69 0.64 0.71 0.76 0.77 0.78 0.87 1.02 1.18 1.31 1.47 1.54 1.66 1.85 1.99 1.95 1.94 1.98 1.94 1.84 1.75 1.70 1.78 1.87 1.90 1.81 1.68 1.71 1.85 1.86 1.91 2.14 2.23 2.19

GEFSSGP_prec_meanprecacc_294.txt.gz
Total_Precipitation_Accumulation
0.20 0.37 0.65 0.81 1.16 1.65 1.61 1.32 0.87 0.60 0.58 0.66 0.62 0.59 0.75 0.91 1.28 2.32 2.42 2.21 1.48 1.34 1.60 1.64 1.65 1.48 1.36 1.37 1.44 1.36 1.27 1.24 1.33 1.39 1.50 1.62 1.75 1.71 1.70 1.87 2.14 2.37 2.52 2.64 2.71 2.66 2.64 2.54 2.39
0.31 0.49 0.62 0.77 1.36 1.83 1.62 1.26 0.77 0.60 0.49 0.55 0.61 0.55 0.74 0.86 0.90 1.44 1.89 1.73 1.11 0.99 1.20 1.22 1.35 1.33 1.24 1.14 1.21 1.28 1.20 1.22 1.29 1.50 1.74 1.86 1.98 1.96 1.97 2.13 2.29 2.46 2.48 2.50 2.50 2.48 2.39 2.33 2.23
0.27 0.43 0.59 0.77 1.10 1.30 1.13 0.85 0.49 0.42 0.35 0.41 0.53 0.48 0.72 1.13 1.03 1.29 1.52 1.31 0.97 0.91 1.00 1.14 1.09 1.03 1.11 1.11 1.13 1.24 1.30 1.29 1.27 1.46 1.69 1.91 2.19 2.25 2.37 2.48 2.60 2.61 2.45 2.32 2.30 2.30 2.12 2.09 2.04
0.29 0.39 0.42 0.50 0.67 0.70 0.56 0.51 0.36 0.34 0.34 0.33 0.44 0.62 0.98 1.05 0.97 1.12 1.15 1.05 0.80 0.77 0.80 0.87 1.04 1.00 1.04 1.08 1.06 1.10 1.25 1.36 1.44 1.57 1.77 1.94 2.23 2.46 2.68 2.66 2.66 2.56 2.35 2.28 2.19 2.09 1.99 2.04 2.10
0.32 0.36 0.38 0.36 0.40 0.50 0.46 0.40 0.32 0.34 0.31 0.36 0.48 0.87 1.41 1.29 0.94 0.92 0.95 0.88 0.73 0.66 0.75 0.79 0.93 0.99 1.00 0.97 1.05 1.09 1.14 1.36 1.52 1.57 1.68 1.86 2.08 2.44 2.56 2.53 2.46 2.29 2.20 2.14 2.09 2.05 1.96 1.98 2.06
0.21 0.23 0.29 0.25 0.30 0.37 0.37 0.31 0.30 0.27 0.29 0.42 0.60 0.92 1.44 1.43 1.19 1.11 1.12 0.98 0.92 0.72 0.66 0.81 0.93 0.96 0.92 0.89 0.97 1.02 1.12 1.31 1.51 1.57 1.64 1.77 1.94 2.17 2.22 2.20 2.16 2.04 2.06 2.03 2.02 2.03 1.91 1.83 2.00
0.18 0.14 0.16 0.17 0.22 0.29 0.31 0.28 0.28 0.26 0.35 0.52 0.69 1.05 1.39 1.61 1.42 1.24 1.34 1.42 1.20 0.94 0.83 0.87 0.88 0.83 0.86 0.94 0.97 1.07 1.26 1.43 1.55 1.59 1.64 1.84 1.96 2.00 1.90 1.96 1.97 1.94 1.97 1.96 1.87 1.81 1.73 1.67 1.83
0.08 0.09 0.12 0.11 0.14 0.24 0.22 0.21 0.20 0.25 0.39 0.47 0.65 1.09 1.46 1.42 1.39 1.38 1.54 1.67 1.59 1.23 1.09 0.98 0.94 0.94 0.87 0.93 1.11 1.21 1.38 1.59 1.70 1.74 1.87 2.04 2.10 2.02 2.01 1.93 1.98 2.01 2.11 2.06 1.96 1.83 1.75 1.75 1.78
0.05 0.07 0.09 0.08 0.09 0.16 0.14 0.17 0.21 0.19 0.24 0.42 0.61 0.92 1.04 0.99 1.14 1.35 1.56 1.75 1.94 1.69 1.35 1.18 1.08 1.11 1.12 1.02 1.11 1.36 1.54 1.70 1.82 2.10 2.36 2.50 2.45 2.26 2.40 2.20 2.35 2.36 2.38 2.36 2.36 2.26 2.10 1.95 1.83
0.03 0.03 0.04 0.04 0.04 0.06 0.10 0.15 0.20 0.18 0.37 0.64 0.79 0.90 0.83 0.99 1.11 1.35 1.53 1.66 1.80 1.91 1.49 1.36 1.20 1.14 1.17 1.30 1.59 1.79 1.66 1.88 2.20 2.54 2.72 2.94 2.86 2.77 2.38 2.61 2.89 3.07 3.24 3.19 3.09 2.93 2.47 2.05 1.89
0.01 0.03 0.03 0.03 0.02 0.03 0.09 0.09 0.15 0.19 0.53 0.99 1.15 1.17 1.10 1.07 1.21 1.48 1.75 1.83 1.70 1.77 1.55 1.48 1.50 1.53 1.41 1.55 1.79 2.01 2.05 2.25 2.45 2.57 2.77 2.95 2.65 2.58 2.65 2.91 3.24 3.41 3.56 3.43 3.39 3.30 2.80 2.51 2.45
0.01 0.01 0.02 0.02 0.02 0.04 0.07 0.09 0.14 0.22 0.52 0.80 1.08 1.07 1.22 1.21 1.31 1.58 1.93 2.13 2.12 2.25 2.02 1.87 1.92 1.89 1.85 1.82 1.99 2.13 2.16 2.26 2.43 2.61 2.61 2.72 2.84 2.92 3.05 3.36 3.33 3.46 3.58 3.91 3.52 3.60 3.30 2.95 2.72
0.01 0.02 0.02 0.03 0.03 0.04 0.08 0.16 0.16 0.27 0.38 0.58 0.83 0.85 0.93 1.25 1.64 2.04 2.44 2.47 2.61 2.84 2.81 2.55 2.31 2.18 2.20 2.36 2.36 2.24 2.34 2.45 2.56 2.75 2.73 2.72 3.00 3.17 3.25 3.31 3.47 3.22 3.27 3.69 3.83 3.56 3.66 3.60 3.25
0.01 0.02 0.02 0.04 0.04 0.06 0.10 0.22 0.28 0.37 0.46 0.52 0.78 1.02 1.08 1.44 1.78 2.38 3.06 3.00 2.79 3.01 3.11 2.88 2.72 2.61 2.64 2.90 2.99 2.82 2.60 2.82 2.87 2.85 2.79 2.86 3.11 3.47 3.65 3.55 3.67 3.45 3.23 3.44 3.63 3.57 4.15 3.97 3.73
0.02 0.04 0.05 0.07 0.08 0.12 0.17 0.39 0.52 0.53 0.50 0.58 0.88 1.21 1.45 1.61 1.94 2.31 2.73 3.08 3.22 3.32 3.25 3.21 3.17 3.10 3.23 3.36 3.30 3.03 2.95 2.83 2.90 2.99 3.06 3.06 3.08 3.47 3.69 3.88 3.83 3.60 3.37 3.54 3.61 3.79 4.03 3.76 3.55
0.03 0.07 0.11 0.13 0.14 0.15 0.24 0.64 0.64 0.53 0.53 0.84 1.04 1.38 1.72 1.79 2.04 2.46 2.83 3.37 3.63 3.67 3.67 3.67 3.48 3.57 3.74 3.82 3.68 3.47 3.33 3.14 2.95 2.90 3.09 3.15 3.23 3.47 3.69 3.65 3.56 3.66 3.59 3.78 4.02 4.10 4.07 3.93 3.74
0.09 0.13 0.16 0.16 0.18 0.16 0.22 0.48 0.62 0.57 0.76 1.03 1.27 1.59 1.89 2.16 2.60 3.11 3.38 3.49 3.84 4.18 4.36 4.38 4.30 4.19 4.13 4.09 4.01 4.04 3.99 3.75 3.40 3.24 3.26 3.29 3.18 3.25 3.51 3.53 3.64 3.73 3.75 3.78 3.47 4.01 4.00 4.03 3.84
0.12 0.11 0.15 0.19 0.17 0.19 0.27 0.43 0.54 0.63 0.85 1.27 1.64 1.88 2.15 2.55 3.06 3.43 3.70 4.04 4.19 4.47 4.98 4.95 4.80 4.79 4.80 4.76 4.46 4.43 4.20 3.91 3.76 3.67 3.77 3.55 3.37 3.29 3.53 3.52 3.64 3.67 3.79 3.83 3.76 4.02 3.97 3.79 3.73
0.09 0.12 0.17 0.20 0.17 0.21 0.37 0.56 0.61 0.80 1.09 1.40 1.74 1.98 2.32 2.66 3.03 3.47 3.55 3.81 4.14 4.75 5.23 5.47 5.51 5.37 5.12 4.83 4.46 4.22 4.13 4.08 3.91 3.73 3.54 3.42 3.34 3.40 3.75 3.62 3.94 3.84 3.64 3.61 3.68 3.94 3.83 3.55 3.58
0.10 0.13 0.17 0.20 0.17 0.20 0.40 0.60 0.69 1.03 1.36 1.41 1.58 1.72 1.91 2.35 2.70 3.04 3.24 3.33 3.76 4.35 4.81 4.99 4.76 4.67 4.53 4.34 4.26 4.21 4.39 4.09 3.86 3.73 3.56 3.27 3.22 3.32 3.35 3.66 3.57 3.60 3.72 3.60 3.60 3.86 3.68 3.25 3.39
0.09 0.10 0.14 0.20 0.20 0.27 0.42 0.78 0.97 1.19 1.33 1.35 1.45 1.60 1.71 1.99 2.31 2.64 2.79 2.94 3.19 3.32 3.60 3.80 3.96 3.89 3.81 3.81 3.79 3.83 4.08 3.91 3.76 3.64 3.54 3.15 2.95 2.92 3.06 3.15 3.25 3.58 3.49 3.55 3.63 3.58 3.51 3.25 3.19
0.09 0.09 0.09 0.14 0.22 0.36 0.50 1.08 1.33 1.28 1.32 1.44 1.43 1.41 1.65 1.95 1.94 2.06 2.31 2.48 2.77 2.96 3.16 3.24 3.28 3.39 3.41 3.50 3.42 3.27 3.23 3.23 3.21 3.28 3.21 3.13 2.94 2.81 2.85 2.90 2.97 3.08 2.98 3.15 2.89 3.04 3.34 3.47 3.17
0.07 0.07 0.09 0.17 0.27 0.38 0.49 0.82 1.24 1.57 1.63 1.43 1.36 1.25 1.45 1.59 1.50 1.49 1.69 1.84 2.12 2.37 2.61 2.74 2.84 2.95 3.10 3.16 3.13 3.11 2.94 2.96 3.03 3.10 3.10 3.04 2.96 2.89 2.85 2.84 2.86 2.79 2.65 2.77 2.80 3.04 3.06 3.07 3.06
0.06 0.10 0.17 0.31 0.49 0.74 0.62 0.75 1.17 1.52 1.78 1.52 1.30 1.20 1.30 1.28 1.25 1.37 1.52 1.63 1.80 2.10 2.30 2.40 2.53 2.58 2.71 2.77 2.87 2.96 2.95 2.90 2.90 2.92 2.91 2.89 2.88 2.76 2.69 2.65 2.70 2.64 2.60 2.68 2.77 2.90 2.82 2.87 3.02
0.07 0.17 0.54 0.92 1.19 1.22 0.80 0.83 1.17 1.17 1.21 1.24 1.20 1.23 1.24 1.18 1.14 1.14 1.23 1.38 1.58 1.82 2.00 2.05 2.15 2.23 2.24 2.29 2.45 2.60 2.67 2.73 2.61 2.55 2.57 2.58 2.41 2.30 2.38 2.32 2.46 2.46 2.48 2.52 2.67 2.74 2.72 2.86 3.01
0.12 0.18 0.60 0.93 0.96 1.03 0.89 1.15 1.48 1.17 1.08 1.02 1.10 1.20 1.19 1.05 0.98 1.01 1.11 1.17 1.26 1.46 1.69 1.74 1.83 1.94 2.10 2.13 2.21 2.34 2.36 2.37 2.25 2.34 2.33 2.28 2.06 1.99 2.17 2.30 2.34 2.33 2.33 2.40 2.67 2.51 2.54 2.73 2.77
0.17 0.19 0.26 0.49 0.58 0.77 0.99 1.28 1.44 1.13 1.09 1.20 1.32 1.30 1.24 0.99 0.84 0.86 0.87 0.91 0.94 1.06 1.23 1.36 1.62 1.77 1.88 1.97 2.07 2.09 2.07 2.13 2.09 2.16 2.30 2.19 2.17 2.03 2.10 2.14 2.24 2.33 2.46 2.60 2.74 2.55 2.66 2.88 2.75
0.16 0.16 0.20 0.39 0.62 0.83 0.95 1.32 1.63 1.57 1.41 1.34 1.40 1.24 0.97 0.80 0.70 0.65 0.66 0.66 0.75 0.87 0.98 1.14 1.34 1.44 1.56 1.76 1.88 1.80 1.99 2.07 2.06 2.06 2.00 2.03 2.11 2.09 1.98 1.93 2.00 2.05 2.16 2.32 2.47 2.38 2.52 2.76 2.71
0.19 0.22 0.29 0.42 0.47 0.70 1.08 1.30 1.24 1.28 1.21 1.25 1.24 1.07 0.84 0.68 0.62 0.63 0.63 0.66 0.72 0.79 0.94 1.12 1.33 1.48 1.49 1.59 1.72 1.77 1.87 2.00 2.04 1.96 1.87 1.91 1.98 2.03 1.96 1.94 1.93 1.90 1.86 1.94 2.10 2.10 2.32 2.36 2.36
0.17 0.20 0.29 0.43 0.43 0.47 0.77 1.02 0.71 0.75 0.77 0.85 0.91 0.79 0.73 0.69 0.64 0.71 0.76 0.77 0.78 0.87 1.02 1.18 1.31 1.47 1.54 1.66 1.86 2.00 1.96 1.95 1.99 1.95 1.85 1.76 1.72 1.80 1.90 1.95 1.87 1.73 1.77 1.91 1.92 1.97 2.19 2.28 2.25

GEFSSGP_prec_meanprecacc_300.txt.gz
Total_Precipitation_Accumulation
0.21 0.45 0.83 1.02 1.32 1.75 1.66 1.35 0.89 0.63 0.60 0.67 0.62 0.60 0.76 0.92 1.30 2.36 2.49 2.27 1.51 1.36 1.62 1.66 1.68 1.50 1.38 1.40 1.48 1.41 1.33 1.31 1.41 1.46 1.56 1.67 1.80 1.77 1.77 1.93 2.22 2.47 2.61 2.70 2.77 2.72 2.70 2.61 2.48
0.39 0.71 0.85 0.93 1.50 1.90 1.66 1.29 0.79 0.63 0.51 0.56 0.61 0.55 0.74 0.86 0.90 1.47 1.95 1.77 1.13 1.00 1.21 1.23 1.36 1.35 1.26 1.16 1.23 1.32 1.25 1.28 1.37 1.57 1.79 1.92 2.06 2.02 2.03 2.18 2.36 2.56 2.56 2.57 2.56 2.54 2.46 2.41 2.33
0.40 0.61 0.76 0.91 1.22 1.36 1.17 0.88 0.51 0.43 0.36 0.41 0.53 0.48 0.72 1.14 1.04 1.32 1.55 1.33 0.99 0.92 1.00 1.15 1.12 1.05 1.13 1.12 1.15 1.28 1.35 1.36 1.35 1.56 1.80 2.01 2.27 2.31 2.42 2.53 2.65 2.69 2.52 2.38 2.37 2.38 2.19 2.17 2.14
0.49 0.62 0.58 0.61 0.71 0.72 0.58 0.52 0.37 0.35 0.34 0.34 0.45 0.62 0.99 1.06 0.99 1.16 1.17 1.06 0.81 0.78 0.82 0.90 1.06 1.02 1.07 1.10 1.08 1.12 1.29 1.42 1.54 1.69 1.90 2.05 2.32 2.54 2.75 2.72 2.73 2.65 2.44 2.36 2.29 2.19 2.07 2.12 2.18
0.55 0.54 0.51 0.41 0.42 0.52 0.48 0.41 0.32 0.35 0.32 0.37 0.48 0.87 1.42 1.33 0.96 0.94 0.97 0.89 0.74 0.67 0.77 0.82 0.96 1.01 1.02 0.99 1.07 1.13 1.20 1.44 1.64 1.68 1.77 1.95 2.18 2.54 2.66 2.59 2.53 2.38 2.28 2.21 2.17 2.13 2.04 2.06 2.14
0.37 0.41 0.42 0.29 0.31 0.40 0.39 0.32 0.30 0.27 0.30 0.42 0.61 0.93 1.47 1.47 1.21 1.13 1.14 0.99 0.92 0.73 0.67 0.82 0.95 0.98 0.94 0.91 1.00 1.07 1.20 1.42 1.65 1.69 1.73 1.85 2.01 2.24 2.28 2.24 2.21 2.10 2.11 2.08 2.07 2.09 1.98 1.90 2.08
0.32 0.28 0.24 0.20 0.23 0.31 0.33 0.29 0.29 0.27 0.35 0.53 0.71 1.07 1.43 1.65 1.45 1.26 1.36 1.42 1.21 0.94 0.84 0.88 0.89 0.85 0.88 0.98 1.01 1.12 1.34 1.55 1.67 1.69 1.73 1.90 2.02 2.05 1.94 2.00 2.00 1.99 2.02 2.00 1.92 1.87 1.79 1.74 1.91
0.16 0.16 0.15 0.13 0.16 0.25 0.24 0.22 0.22 0.26 0.40 0.48 0.66 1.11 1.49 1.45 1.41 1.40 1.55 1.68 1.60 1.24 1.11 0.99 0.95 0.95 0.89 0.96 1.15 1.27 1.46 1.69 1.82 1.84 1.93 2.10 2.17 2.09 2.08 1.97 2.03 2.08 2.16 2.11 2.04 1.92 1.83 1.84 1.87
0.10 0.12 0.11 0.09 0.10 0.17 0.15 0.18 0.22 0.19 0.24 0.42 0.63 0.94 1.06 1.02 1.16 1.36 1.57 1.76 1.95 1.70 1.37 1.20 1.10 1.12 1.15 1.07 1.17 1.42 1.61 1.77 1.90 2.18 2.42 2.55 2.51 2.32 2.46 2.26 2.42 2.45 2.46 2.45 2.48 2.41 2.23 2.10 1.93
0.05 0.06 0.06 0.04 0.05 0.06 0.10 0.15 0.20 0.18 0.38 0.65 0.79 0.91 0.85 1.01 1.13 1.37 1.55 1.67 1.82 1.93 1.50 1.38 1.23 1.18 1.21 1.35 1.65 1.86 1.73 1.94 2.25 2.59 2.76 2.97 2.89 2.84 2.48 2.72 3.00 3.18 3.35 3.31 3.23 3.09 2.68 2.20 1.99
0.02 0.03 0.03 0.03 0.02 0.04 0.09 0.10 0.16 0.20 0.54 0.99 1.15 1.18 1.11 1.08 1.22 1.49 1.77 1.84 1.71 1.78 1.57 1.50 1.53 1.56 1.44 1.60 1.84 2.07 2.12 2.33 2.49 2.61 2.79 2.98 2.68 2.64 2.74 3.04 3.39 3.57 3.69 3.54 3.55 3.49 2.99 2.66 2.56
0.02 0.02 0.03 0.02 0.02 0.04 0.08 0.09 0.14 0.23 0.53 0.81 1.08 1.07 1.23 1.21 1.32 1.59 1.94 2.15 2.14 2.28 2.04 1.89 1.94 1.93 1.89 1.86 2.02 2.17 2.21 2.30 2.45 2.63 2.62 2.74 2.87 2.95 3.12 3.48 3.46 3.58 3.68 4.01 3.69 3.80 3.50 3.11 2.87
0.02 0.02 0.03 0.03 0.03 0.04 0.08 0.17 0.17 0.28 0.39 0.58 0.83 0.85 0.94 1.26 1.65 2.05 2.45 2.48 2.63 2.86 2.84 2.58 2.35 2.22 2.25 2.41 2.39 2.28 2.38 2.48 2.58 2.77 2.75 2.74 3.02 3.21 3.32 3.41 3.58 3.32 3.36 3.76 3.93 3.71 3.83 3.75 3.44
0.03 0.03 0.03 0.04 0.04 0.06 0.10 0.23 0.29 0.39 0.47 0.52 0.78 1.02 1.08 1.44 1.79 2.38 3.07 3.00 2.79 3.02 3.13 2.91 2.76 2.66 2.70 2.95 3.02 2.85 2.63 2.84 2.89 2.88 2.81 2.88 3.14 3.53 3.73 3.64 3.73 3.51 3.30 3.49 3.69 3.66 4.28 4.10 3.89
0.04 0.06 0.06 0.08 0.09 0.12 0.18 0.40 0.53 0.53 0.51 0.59 0.89 1.21 1.46 1.61 1.95 2.32 2.73 3.09 3.23 3.33 3.26 3.22 3.19 3.14 3.28 3.41 3.34 3.07 2.98 2.86 2.92 3.01 3.08 3.10 3.13 3.52 3.75 3.94 3.89 3.65 3.42 3.60 3.70 3.91 4.17 3.89 3.71
0.05 0.09 0.13 0.13 0.14 0.15 0.24 0.65 0.65 0.54 0.54 0.85 1.04 1.39 1.72 1.79 2.05 2.47 2.84 3.39 3.65 3.68 3.68 3.68 3.49 3.59 3.79 3.86 3.72 3.52 3.38 3.18 2.98 2.93 3.11 3.19 3.28 3.52 3.75 3.71 3.62 3.71 3.64 3.83 4.08 4.20 4.21 4.07 3.91
0.12 0.15 0.18 0.17 0.19 0.16 0.22 0.48 0.62 0.58 0.76 1.04 1.27 1.59 1.90 2.16 2.61 3.11 3.38 3.50 3.85 4.19 4.36 4.39 4.31 4.21 4.18 4.15 4.05 4.08 4.04 3.81 3.46 3.28 3.30 3.35 3.23 3.30 3.57 3.58 3.67 3.76 3.78 3.81 3.50 4.06 4.06 4.10 3.95
0.14 0.13 0.17 0.20 0.18 0.19 0.27 0.43 0.55 0.63 0.85 1.27 1.64 1.88 2.15 2.56 3.06 3.43 3.70 4.05 4.19 4.47 4.99 4.96 4.81 4.82 4.87 4.83 4.52 4.51 4.27 3.98 3.83 3.73 3.84 3.62 3.42 3.33 3.57 3.56 3.67 3.70 3.81 3.85 3.79 4.07 4.01 3.83 3.77
0.12 0.14 0.18 0.21 0.18 0.22 0.38 0.57 0.62 0.80 1.09 1.40 1.75 1.98 2.32 2.66 3.03 3.47 3.56 3.82 4.14 4.75 5.23 5.48 5.52 5.39 5.15 4.86 4.52 4.32 4.25 4.18 4.00 3.79 3.62 3.50 3.40 3.46 3.79 3.67 3.99 3.89 3.69 3.64 3.73 3.99 3.87 3.59 3.61
0.11 0.14 0.18 0.21 0.19 0.21 0.40 0.60 0.70 1.04 1.36 1.42 1.59 1.72 1.91 2.35 2.70 3.04 3.24 3.33 3.76 4.35 4.81 5.00 4.76 4.68 4.54 4.35 4.30 4.29 4.49 4.19 3.95 3.79 3.62 3.35 3.31 3.40 3.41 3.73 3.65 3.68 3.79 3.68 3.67 3.91 3.72 3.29 3.43
0.10 0.11 0.15 0.22 0.22 0.28 0.43 0.79 0.99 1.20 1.34 1.37 1.46 1.60 1.71 1.99 2.31 2.64 2.79 2.95 3.19 3.32 3.60 3.81 3.96 3.89 3.82 3.82 3.82 3.89 4.15 3.98 3.83 3.70 3.59 3.20 3.02 3.00 3.15 3.27 3.36 3.68 3.58 3.62 3.69 3.63 3.56 3.28 3.22
0.10 0.10 0.10 0.15 0.23 0.37 0.51 1.10 1.34 1.29 1.34 1.46 1.44 1.41 1.65 1.95 1.94 2.06 2.31 2.48 2.77 2.96 3.16 3.24 3.29 3.39 3.42 3.50 3.43 3.29 3.25 3.26 3.25 3.32 3.25 3.19 2.99 2.88 2.94 3.04 3.14 3.23 3.08 3.23 2.96 3.09 3.39 3.52 3.22
0.08 0.08 0.09 0.19 0.29 0.40 0.51 0.85 1.25 1.57 1.64 1.44 1.37 1.25 1.45 1.59 1.50 1.50 1.69 1.84 2.12 2.37 2.61 2.74 2.85 2.96 3.11 3.17 3.14 3.13 2.95 2.97 3.05 3.12 3.12 3.07 2.99 2.92 2.89 2.90 2.94 2.91 2.75 2.86 2.85 3.08 3.10 3.12 3.11
0.06 0.10 0.17 0.32 0.51 0.76 0.64 0.78 1.20 1.52 1.78 1.52 1.30 1.21 1.31 1.28 1.25 1.37 1.53 1.64 1.80 2.11 2.30 2.41 2.54 2.60 2.72 2.78 2.89 3.02 3.00 2.92 2.91 2.93 2.92 2.90 2.90 2.79 2.72 2.68 2.74 2.72 2.69 2.74 2.81 2.94 2.86 2.91 3.06
0.08 0.17 0.56 0.94 1.21 1.24 0.81 0.84 1.19 1.18 1.21 1.24 1.20 1.24 1.25 1.19 1.15 1.15 1.24 1.39 1.58 1.82 2.01 2.06 2.16 2.24 2.25 2.30 2.48 2.66 2.70 2.74 2.62 2.56 2.58 2.59 2.42 2.32 2.41 2.35 2.49 2.50 2.53 2.57 2.70 2.78 2.76 2.89 3.05
0.13 0.19 0.62 0.96 1.00 1.05 0.90 1.16 1.49 1.18 1.09 1.02 1.10 1.20 1.20 1.06 1.00 1.03 1.13 1.18 1.27 1.47 1.69 1.74 1.83 1.94 2.10 2.14 2.23 2.36 2.38 2.39 2.27 2.35 2.35 2.29 2.07 2.00 2.19 2.32 2.36 2.34 2.35 2.43 2.70 2.54 2.58 2.78 2.82
0.19 0.20 0.28 0.53 0.64 0.81 1.01 1.29 1.46 1.14 1.10 1.21 1.32 1.30 1.25 1.00 0.86 0.89 0.89 0.93 0.95 1.07 1.24 1.36 1.62 1.77 1.88 1.98 2.08 2.10 2.08 2.14 2.10 2.17 2.31 2.20 2.18 2.04 2.11 2.16 2.25 2.34 2.47 2.62 2.77 2.58 2.69 2.93 2.81
0.17 0.17 0.23 0.46 0.70 0.87 0.98 1.34 1.64 1.59 1.43 1.35 1.41 1.25 0.98 0.81 0.71 0.68 0.68 0.68 0.77 0.89 1.00 1.15 1.35 1.45 1.56 1.76 1.89 1.81 2.00 2.08 2.07 2.07 2.01 2.04 2.13 2.11 1.99 1.94 2.01 2.08 2.18 2.35 2.50 2.40 2.54 2.80 2.74
0.20 0.23 0.31 0.45 0.49 0.72 1.11 1.34 1.26 1.31 1.23 1.27 1.25 1.08 0.85 0.69 0.63 0.66 0.66 0.68 0.75 0.82 0.97 1.14 1.35 1.50 1.50 1.60 1.73 1.78 1.88 2.01 2.04 1.97 1.88 1.92 2.00 2.04 1.97 1.95 1.95 1.93 1.89 1.98 2.13 2.12 2.35 2.39 2.39
0.18 0.21 0.31 0.45 0.44 0.49 0.79 1.05 0.74 0.78 0.80 0.87 0.93 0.80 0.73 0.70 0.66 0.73 0.78 0.78 0.80 0.89 1.03 1.21 1.35 1.51 1.57 1.68 1.87 2.00 1.96 1.96 2.00 1.96 1.86 1.78 1.74 1.82 1.93 1.97 1.89 1.75 1.79 1.93 1.94 1.99 2.21 2.31 2.28

GEFSSGP_prec_meanprecacc_306.txt.gz
Total_Precipitation_Accumulation
0.22 0.46 0.86 1.05 1.35 1.78 1.68 1.37 0.90 0.66 0.65 0.70 0.62 0.60 0.77 0.93 1.31 2.39 2.50 2.28 1.52 1.39 1.66 1.74 1.76 1.56 1.45 1.46 1.56 1.50 1.41 1.40 1.50 1.54 1.63 1.74 1.88 1.87 1.90 2.03 2.29 2.54 2.68 2.76 2.83 2.78 2.75 2.69 2.58
0.40 0.72 0.87 0.98 1.54 1.92 1.67 1.30 0.80 0.66 0.55 0.57 0.62 0.55 0.74 0.87 0.91 1.48 1.97 1.80 1.15 1.02 1.24 1.29 1.43 1.40 1.32 1.23 1.31 1.41 1.33 1.34 1.44 1.66 1.88 2.03 2.15 2.12 2.14 2.27 2.44 2.65 2.65 2.63 2.61 2.59 2.51 2.48 2.43
0.42 0.63 0.79 0.94 1.24 1.37 1.18 0.90 0.53 0.46 0.39 0.42 0.54 0.48 0.72 1.15 1.05 1.33 1.56 1.34 1.00 0.94 1.02 1.20 1.18 1.11 1.19 1.20 1.25 1.39 1.43 1.40 1.40 1.62 1.87 2.11 2.35 2.40 2.51 2.62 2.73 2.81 2.63 2.48 2.44 2.44 2.25 2.26 2.26
0.52 0.64 0.61 0.62 0.72 0.73 0.59 0.54 0.38 0.37 0.37 0.35 0.45 0.63 1.00 1.09 1.00 1.17 1.18 1.07 0.82 0.80 0.84 0.94 1.12 1.07 1.10 1.14 1.13 1.19 1.34 1.48 1.59 1.76 1.95 2.11 2.39 2.63 2.85 2.82 2.83 2.79 2.59 2.48 2.38 2.27 2.16 2.22 2.30
0.59 0.56 0.53 0.42 0.42 0.53 0.49 0.41 0.33 0.36 0.33 0.38 0.48 0.88 1.45 1.35 0.97 0.94 0.97 0.90 0.75 0.68 0.79 0.89 1.03 1.07 1.08 1.04 1.11 1.17 1.27 1.51 1.70 1.74 1.81 2.00 2.24 2.61 2.75 2.68 2.62 2.48 2.41 2.33 2.28 2.24 2.14 2.16 2.27
0.41 0.45 0.43 0.29 0.31 0.40 0.40 0.33 0.31 0.28 0.30 0.43 0.61 0.94 1.49 1.49 1.21 1.13 1.14 0.99 0.92 0.73 0.70 0.88 1.01 1.05 1.02 0.97 1.04 1.12 1.28 1.50 1.73 1.76 1.78 1.90 2.08 2.32 2.36 2.32 2.29 2.18 2.21 2.18 2.19 2.19 2.07 1.99 2.22
0.35 0.31 0.25 0.20 0.24 0.31 0.33 0.29 0.29 0.27 0.35 0.53 0.71 1.07 1.44 1.67 1.46 1.27 1.37 1.43 1.21 0.96 0.86 0.91 0.92 0.90 0.94 1.04 1.08 1.21 1.45 1.66 1.74 1.75 1.78 1.96 2.09 2.11 1.99 2.05 2.07 2.07 2.10 2.10 2.02 1.96 1.90 1.85 2.05
0.19 0.19 0.16 0.13 0.16 0.26 0.24 0.23 0.22 0.26 0.40 0.48 0.67 1.11 1.50 1.47 1.42 1.41 1.55 1.69 1.61 1.25 1.13 1.02 0.97 0.98 0.95 1.05 1.29 1.46 1.65 1.80 1.89 1.91 2.00 2.16 2.23 2.15 2.13 2.04 2.09 2.16 2.26 2.21 2.14 2.02 1.94 1.96 1.97
0.14 0.14 0.11 0.09 0.10 0.17 0.15 0.19 0.23 0.20 0.25 0.42 0.64 0.95 1.08 1.03 1.17 1.37 1.58 1.77 1.96 1.73 1.40 1.23 1.12 1.14 1.19 1.13 1.28 1.60 1.80 1.91 1.99 2.24 2.47 2.60 2.54 2.36 2.50 2.32 2.50 2.55 2.59 2.57 2.62 2.52 2.35 2.22 2.02
0.07 0.07 0.06 0.04 0.05 0.06 0.10 0.16 0.21 0.19 0.38 0.65 0.80 0.92 0.86 1.02 1.14 1.37 1.55 1.68 1.83 1.97 1.55 1.41 1.25 1.20 1.25 1.40 1.74 1.97 1.85 2.02 2.30 2.63 2.80 2.99 2.93 2.86 2.50 2.77 3.10 3.30 3.52 3.46 3.36 3.19 2.83 2.31 2.05
0.03 0.04 0.03 0.03 0.02 0.04 0.09 0.10 0.17 0.21 0.55 1.00 1.16 1.19 1.13 1.09 1.23 1.50 1.77 1.85 1.72 1.80 1.60 1.53 1.55 1.58 1.47 1.65 1.92 2.15 2.18 2.36 2.51 2.63 2.82 3.01 2.72 2.67 2.79 3.09 3.45 3.66 3.81 3.65 3.65 3.59 3.09 2.72 2.60
0.02 0.02 0.03 0.02 0.02 0.04 0.08 0.10 0.14 0.24 0.54 0.81 1.09 1.08 1.24 1.22 1.33 1.60 1.95 2.16 2.15 2.30 2.06 1.92 1.96 1.95 1.92 1.90 2.08 2.21 2.24 2.33 2.47 2.65 2.64 2.78 2.93 3.01 3.19 3.53 3.50 3.65 3.76 4.08 3.77 3.86 3.56 3.17 2.91
0.02 0.03 0.03 0.03 0.03 0.04 0.08 0.17 0.17 0.28 0.39 0.59 0.84 0.86 0.94 1.26 1.66 2.06 2.46 2.49 2.65 2.88 2.86 2.60 2.37 2.25 2.30 2.45 2.44 2.31 2.41 2.51 2.60 2.80 2.76 2.77 3.09 3.27 3.38 3.48 3.64 3.39 3.42 3.83 4.01 3.79 3.89 3.81 3.48
0.03 0.03 0.03 0.04 0.04 0.06 0.10 0.24 0.30 0.39 0.48 0.53 0.79 1.03 1.09 1.45 1.80 2.39 3.08 3.01 2.80 3.03 3.15 2.93 2.79 2.69 2.75 3.00 3.06 2.88 2.67 2.87 2.91 2.90 2.84 2.91 3.19 3.58 3.76 3.68 3.78 3.56 3.34 3.53 3.76 3.78 4.42 4.24 3.99
0.05 0.06 0.07 0.08 0.09 0.13 0.19 0.41 0.54 0.54 0.51 0.59 0.89 1.22 1.47 1.63 1.95 2.32 2.74 3.09 3.23 3.34 3.27 3.24 3.23 3.17 3.31 3.44 3.36 3.12 3.03 2.91 2.95 3.03 3.11 3.12 3.15 3.54 3.77 3.97 3.92 3.69 3.45 3.63 3.76 3.99 4.29 4.05 3.89
0.06 0.09 0.13 0.14 0.15 0.16 0.25 0.66 0.66 0.55 0.54 0.85 1.05 1.39 1.73 1.80 2.05 2.47 2.84 3.39 3.65 3.68 3.68 3.69 3.52 3.62 3.81 3.88 3.74 3.54 3.42 3.24 3.02 2.95 3.15 3.24 3.32 3.55 3.77 3.74 3.65 3.74 3.66 3.85 4.12 4.23 4.28 4.20 4.05
0.12 0.15 0.18 0.17 0.19 0.17 0.23 0.48 0.63 0.58 0.77 1.04 1.28 1.59 1.90 2.16 2.62 3.12 3.39 3.50 3.85 4.19 4.37 4.40 4.33 4.24 4.21 4.18 4.08 4.12 4.08 3.85 3.49 3.31 3.34 3.39 3.28 3.34 3.60 3.62 3.70 3.78 3.79 3.82 3.52 4.08 4.10 4.17 4.06
0.15 0.13 0.17 0.21 0.18 0.20 0.28 0.43 0.55 0.63 0.85 1.27 1.65 1.88 2.15 2.56 3.06 3.43 3.70 4.05 4.19 4.48 4.99 4.97 4.83 4.86 4.91 4.87 4.56 4.56 4.34 4.07 3.91 3.79 3.87 3.65 3.46 3.37 3.60 3.60 3.71 3.73 3.84 3.88 3.82 4.09 4.05 3.87 3.85
0.12 0.14 0.19 0.22 0.19 0.22 0.38 0.57 0.62 0.80 1.09 1.40 1.75 1.98 2.32 2.66 3.03 3.47 3.56 3.82 4.15 4.75 5.24 5.48 5.54 5.46 5.22 4.92 4.56 4.36 4.30 4.25 4.06 3.84 3.64 3.52 3.44 3.49 3.83 3.72 4.04 3.92 3.72 3.68 3.76 4.02 3.91 3.63 3.67
0.11 0.15 0.19 0.22 0.19 0.21 0.40 0.60 0.70 1.04 1.36 1.42 1.59 1.72 1.91 2.36 2.70 3.04 3.24 3.33 3.76 4.35 4.82 5.00 4.78 4.75 4.63 4.41 4.35 4.33 4.52 4.23 3.98 3.82 3.65 3.38 3.35 3.44 3.45 3.80 3.74 3.75 3.85 3.73 3.72 3.95 3.76 3.33 3.48
0.10 0.11 0.16 0.23 0.22 0.29 0.43 0.79 0.99 1.20 1.34 1.37 1.46 1.60 1.71 2.00 2.31 2.64 2.79 2.95 3.19 3.32 3.60 3.82 3.99 3.95 3.87 3.88 3.88 3.97 4.20 4.04 3.87 3.74 3.64 3.26 3.08 3.08 3.22 3.35 3.48 3.79 3.66 3.70 3.77 3.70 3.63 3.35 3.30
0.11 0.10 0.10 0.16 0.24 0.38 0.51 1.10 1.34 1.29 1.34 1.46 1.45 1.41 1.65 1.95 1.95 2.06 2.31 2.49 2.78 2.96 3.17 3.25 3.31 3.43 3.45 3.55 3.50 3.39 3.32 3.31 3.31 3.37 3.32 3.28 3.11 3.02 3.07 3.15 3.28 3.45 3.28 3.37 3.05 3.17 3.47 3.60 3.31
0.08 0.08 0.10 0.19 0.29 0.40 0.51 0.85 1.25 1.57 1.64 1.44 1.37 1.25 1.45 1.59 1.51 1.50 1.69 1.84 2.12 2.37 2.61 2.75 2.85 2.97 3.13 3.20 3.19 3.20 3.01 3.02 3.11 3.16 3.19 3.16 3.10 3.04 3.02 3.02 3.05 3.04 2.87 2.95 2.91 3.15 3.16 3.18 3.17
0.06 0.10 0.18 0.32 0.51 0.77 0.64 0.78 1.20 1.53 1.78 1.52 1.30 1.21 1.31 1.28 1.25 1.38 1.53 1.64 1.80 2.11 2.31 2.42 2.55 2.60 2.72 2.79 2.92 3.06 3.04 2.95 2.94 2.95 2.98 2.97 2.95 2.84 2.78 2.74 2.78 2.77 2.75 2.80 2.87 3.01 2.92 2.96 3.11
0.08 0.18 0.56 0.94 1.22 1.24 0.81 0.84 1.19 1.19 1.21 1.24 1.20 1.24 1.25 1.19 1.15 1.15 1.25 1.40 1.59 1.83 2.02 2.07 2.18 2.25 2.25 2.31 2.50 2.68 2.72 2.76 2.63 2.57 2.62 2.62 2.43 2.32 2.43 2.38 2.53 2.55 2.60 2.64 2.75 2.84 2.81 2.94 3.09
0.13 0.20 0.62 0.96 1.00 1.06 0.91 1.16 1.49 1.18 1.09 1.03 1.10 1.20 1.20 1.06 1.00 1.03 1.13 1.19 1.28 1.47 1.70 1.75 1.84 1.95 2.10 2.15 2.24 2.37 2.39 2.41 2.28 2.37 2.36 2.29 2.07 2.00 2.20 2.34 2.37 2.36 2.39 2.48 2.74 2.59 2.63 2.82 2.85
0.19 0.21 0.28 0.53 0.64 0.81 1.01 1.30 1.46 1.14 1.10 1.21 1.32 1.30 1.25 1.00 0.86 0.89 0.90 0.94 0.96 1.07 1.24 1.37 1.63 1.78 1.89 2.00 2.09 2.11 2.08 2.15 2.11 2.18 2.33 2.21 2.18 2.05 2.12 2.17 2.27 2.36 2.49 2.66 2.81 2.64 2.75 2.97 2.84
0.17 0.17 0.23 0.46 0.70 0.88 0.98 1.35 1.65 1.59 1.43 1.36 1.41 1.25 0.98 0.81 0.71 0.68 0.68 0.69 0.78 0.90 1.01 1.17 1.38 1.47 1.58 1.78 1.91 1.81 2.00 2.08 2.08 2.08 2.02 2.05 2.13 2.12 2.00 1.95 2.02 2.09 2.20 2.39 2.55 2.45 2.60 2.84 2.80
0.20 0.23 0.31 0.45 0.49 0.72 1.11 1.34 1.26 1.31 1.24 1.27 1.25 1.08 0.85 0.69 0.64 0.66 0.66 0.69 0.77 0.83 0.99 1.18 1.40 1.53 1.53 1.62 1.75 1.79 1.89 2.01 2.04 1.97 1.89 1.93 2.00 2.05 1.98 1.96 1.96 1.93 1.91 2.00 2.16 2.16 2.38 2.43 2.44
0.18 0.21 0.31 0.45 0.44 0.49 0.79 1.05 0.74 0.78 0.80 0.87 0.93 0.81 0.74 0.70 0.66 0.73 0.79 0.79 0.81 0.91 1.06 1.24 1.39 1.55 1.60 1.71 1.89 2.02 1.98 1.98 2.01 1.97 1.86 1.78 1.74 1.83 1.93 1.97 1.89 1.76 1.80 1.95 1.96 2.01 2.24 2.34 2.32

GEFSSGP_prec_meanprecacc_312.txt.gz
Total_Precipitation_Accumulation
0.22 0.47 0.87 1.06 1.36 1.79 1.69 1.38 0.91 0.67 0.66 0.71 0.63 0.61 0.77 0.94 1.32 2.40 2.53 2.32 1.57 1.49 1.81 1.91 1.90 1.65 1.54 1.53 1.65 1.57 1.49 1.51 1.62 1.64 1.72 1.81 1.95 1.94 1.97 2.09 2.36 2.62 2.79 2.87 2.91 2.87 2.84 2.78 2.72
0.40 0.73 0.88 0.98 1.55 1.93 1.68 1.31 0.81 0.67 0.56 0.58 0.62 0.56 0.75 0.88 0.93 1.50 1.99 1.83 1.18 1.09 1.35 1.43 1.57 1.54 1.44 1.30 1.39 1.48 1.38 1.41 1.55 1.81 2.01 2.12 2.24 2.21 2.22 2.35 2.52 2.73 2.73 2.74 2.72 2.70 2.62 2.58 2.56
0.42 0.64 0.80 0.95 1.26 1.39 1.19 0.91 0.54 0.48 0.40 0.42 0.54 0.48 0.73 1.17 1.07 1.35 1.58 1.36 1.04 1.00 1.09 1.30 1.28 1.22 1.29 1.28 1.34 1.46 1.49 1.47 1.48 1.74 2.04 2.29 2.48 2.51 2.58 2.69 2.82 2.90 2.71 2.58 2.57 2.57 2.35 2.36 2.39
0.53 0.65 0.62 0.63 0.73 0.74 0.60 0.55 0.40 0.38 0.37 0.36 0.45 0.63 1.01 1.10 1.02 1.18 1.19 1.08 0.85 0.85 0.90 1.01 1.20 1.17 1.21 1.23 1.23 1.26 1.39 1.54 1.67 1.85 2.08 2.30 2.57 2.75 2.92 2.91 2.95 2.92 2.69 2.61 2.55 2.46 2.29 2.33 2.43
0.59 0.56 0.53 0.42 0.42 0.53 0.50 0.42 0.33 0.37 0.34 0.39 0.49 0.88 1.46 1.36 0.97 0.94 0.98 0.91 0.77 0.72 0.85 0.94 1.10 1.16 1.17 1.13 1.18 1.23 1.32 1.58 1.78 1.81 1.90 2.10 2.34 2.70 2.84 2.81 2.81 2.66 2.53 2.45 2.47 2.46 2.32 2.30 2.42
0.41 0.45 0.44 0.30 0.32 0.41 0.41 0.33 0.31 0.29 0.31 0.44 0.61 0.94 1.50 1.50 1.22 1.14 1.15 1.01 0.94 0.76 0.73 0.92 1.08 1.13 1.13 1.07 1.13 1.21 1.39 1.60 1.81 1.82 1.85 1.96 2.16 2.41 2.45 2.44 2.41 2.31 2.36 2.37 2.43 2.44 2.27 2.16 2.43
0.35 0.32 0.25 0.20 0.24 0.32 0.34 0.29 0.30 0.27 0.36 0.54 0.71 1.08 1.46 1.68 1.46 1.27 1.37 1.44 1.22 0.97 0.87 0.94 0.98 0.99 1.05 1.14 1.18 1.34 1.56 1.75 1.82 1.81 1.85 2.01 2.13 2.16 2.08 2.13 2.16 2.17 2.21 2.23 2.21 2.14 2.07 2.06 2.28
0.19 0.19 0.16 0.14 0.16 0.26 0.24 0.23 0.22 0.27 0.40 0.49 0.67 1.12 1.52 1.48 1.43 1.41 1.56 1.70 1.63 1.28 1.16 1.06 1.04 1.07 1.03 1.13 1.35 1.55 1.73 1.89 1.97 1.98 2.07 2.21 2.27 2.19 2.20 2.11 2.16 2.24 2.34 2.33 2.34 2.26 2.14 2.14 2.19
0.14 0.14 0.11 0.09 0.10 0.17 0.15 0.19 0.23 0.20 0.25 0.42 0.64 0.97 1.10 1.04 1.17 1.38 1.58 1.79 1.98 1.75 1.45 1.29 1.16 1.19 1.29 1.26 1.36 1.70 1.90 2.01 2.08 2.33 2.55 2.66 2.59 2.41 2.55 2.37 2.57 2.61 2.66 2.67 2.84 2.79 2.54 2.36 2.22
0.07 0.07 0.06 0.04 0.05 0.06 0.10 0.16 0.22 0.19 0.39 0.65 0.80 0.93 0.87 1.03 1.15 1.38 1.57 1.70 1.85 2.01 1.61 1.47 1.30 1.26 1.34 1.48 1.81 2.07 1.94 2.11 2.37 2.70 2.87 3.07 3.00 2.92 2.54 2.80 3.15 3.36 3.60 3.55 3.51 3.35 2.97 2.43 2.19
0.03 0.04 0.03 0.03 0.02 0.04 0.09 0.10 0.17 0.22 0.55 1.01 1.17 1.20 1.14 1.10 1.24 1.51 1.78 1.87 1.75 1.84 1.66 1.62 1.64 1.70 1.58 1.74 1.98 2.21 2.24 2.42 2.58 2.70 2.89 3.09 2.82 2.75 2.84 3.14 3.50 3.74 3.89 3.75 3.78 3.76 3.22 2.82 2.68
0.02 0.02 0.03 0.02 0.02 0.04 0.08 0.10 0.15 0.24 0.54 0.82 1.10 1.10 1.25 1.24 1.34 1.60 1.97 2.19 2.19 2.33 2.11 2.00 2.08 2.08 2.04 1.99 2.14 2.25 2.28 2.38 2.53 2.71 2.71 2.86 3.03 3.11 3.26 3.60 3.56 3.71 3.83 4.17 3.88 4.01 3.67 3.26 2.99
0.02 0.03 0.03 0.03 0.03 0.04 0.08 0.17 0.18 0.28 0.39 0.59 0.85 0.88 0.96 1.28 1.67 2.07 2.48 2.51 2.66 2.90 2.90 2.67 2.46 2.33 2.37 2.52 2.49 2.34 2.46 2.58 2.67 2.86 2.82 2.84 3.16 3.35 3.45 3.54 3.69 3.43 3.47 3.90 4.09 3.88 3.98 3.91 3.59
0.03 0.03 0.03 0.04 0.04 0.07 0.11 0.24 0.30 0.40 0.48 0.53 0.80 1.04 1.10 1.47 1.82 2.40 3.08 3.01 2.81 3.04 3.17 2.97 2.83 2.72 2.77 3.05 3.10 2.93 2.76 3.00 3.00 2.96 2.88 2.96 3.25 3.64 3.80 3.73 3.84 3.62 3.40 3.61 3.84 3.86 4.48 4.30 4.10
0.05 0.06 0.07 0.08 0.09 0.13 0.19 0.42 0.55 0.55 0.51 0.60 0.90 1.22 1.49 1.65 1.97 2.33 2.74 3.09 3.24 3.35 3.28 3.27 3.26 3.19 3.33 3.47 3.39 3.15 3.10 3.01 3.05 3.09 3.15 3.17 3.20 3.60 3.83 4.02 3.98 3.74 3.50 3.69 3.85 4.08 4.38 4.15 3.98
0.06 0.09 0.13 0.14 0.15 0.16 0.25 0.67 0.67 0.55 0.54 0.86 1.05 1.39 1.73 1.80 2.06 2.47 2.85 3.39 3.66 3.69 3.70 3.72 3.55 3.64 3.83 3.91 3.77 3.59 3.48 3.31 3.09 3.01 3.22 3.31 3.38 3.60 3.82 3.79 3.70 3.78 3.69 3.89 4.19 4.33 4.40 4.31 4.14
0.12 0.15 0.18 0.17 0.19 0.17 0.23 0.49 0.63 0.58 0.77 1.04 1.28 1.59 1.90 2.17 2.62 3.12 3.39 3.50 3.86 4.20 4.38 4.44 4.37 4.27 4.24 4.22 4.12 4.16 4.14 3.91 3.56 3.39 3.45 3.51 3.38 3.41 3.66 3.67 3.76 3.82 3.82 3.86 3.57 4.15 4.20 4.32 4.18
0.15 0.13 0.17 0.21 0.18 0.20 0.28 0.43 0.55 0.63 0.86 1.28 1.65 1.88 2.15 2.56 3.06 3.44 3.70 4.05 4.20 4.48 5.00 5.01 4.88 4.90 4.96 4.91 4.60 4.60 4.39 4.12 3.97 3.89 4.00 3.76 3.53 3.40 3.64 3.65 3.77 3.79 3.88 3.92 3.86 4.14 4.12 3.99 3.97
0.12 0.14 0.19 0.22 0.19 0.22 0.38 0.57 0.62 0.80 1.09 1.40 1.75 1.98 2.32 2.66 3.04 3.48 3.56 3.82 4.15 4.76 5.25 5.51 5.59 5.51 5.27 4.95 4.59 4.39 4.34 4.30 4.11 3.88 3.69 3.57 3.47 3.52 3.87 3.75 4.09 3.97 3.77 3.74 3.83 4.10 3.99 3.73 3.78
0.11 0.15 0.19 0.22 0.19 0.21 0.40 0.60 0.70 1.04 1.36 1.42 1.59 1.72 1.92 2.36 2.70 3.05 3.24 3.34 3.76 4.36 4.83 5.02 4.82 4.81 4.67 4.45 4.38 4.36 4.56 4.27 4.02 3.85 3.68 3.41 3.37 3.46 3.47 3.85 3.80 3.83 3.97 3.88 3.86 4.06 3.86 3.44 3.59
0.10 0.11 0.16 0.23 0.22 0.29 0.43 0.79 0.99 1.20 1.34 1.37 1.46 1.60 1.71 2.00 2.31 2.64 2.80 2.95 3.19 3.32 3.61 3.83 4.02 4.01 3.94 3.94 3.92 4.01 4.23 4.07 3.92 3.77 3.67 3.29 3.11 3.11 3.26 3.42 3.58 3.93 3.80 3.82 3.89 3.82 3.75 3.48 3.43
0.11 0.10 0.10 0.16 0.24 0.38 0.51 1.10 1.34 1.29 1.34 1.46 1.45 1.41 1.65 1.95 1.95 2.07 2.32 2.49 2.78 2.96 3.18 3.27 3.35 3.47 3.53 3.64 3.55 3.43 3.35 3.36 3.36 3.42 3.36 3.33 3.17 3.06 3.12 3.25 3.42 3.59 3.39 3.44 3.12 3.25 3.55 3.70 3.42
0.08 0.08 0.10 0.19 0.29 0.41 0.51 0.85 1.25 1.57 1.64 1.44 1.37 1.25 1.45 1.59 1.51 1.50 1.70 1.85 2.13 2.38 2.63 2.78 2.90 3.00 3.20 3.29 3.25 3.24 3.06 3.08 3.17 3.21 3.23 3.21 3.16 3.08 3.06 3.08 3.14 3.16 2.99 3.05 2.98 3.20 3.22 3.24 3.24
0.06 0.10 0.18 0.32 0.52 0.77 0.64 0.78 1.20 1.53 1.78 1.52 1.30 1.21 1.31 1.28 1.25 1.38 1.53 1.64 1.80 2.11 2.31 2.43 2.56 2.61 2.78 2.89 2.99 3.11 3.09 3.01 3.00 3.01 3.02 3.02 3.01 2.91 2.84 2.79 2.83 2.84 2.82 2.87 2.92 3.05 2.96 3.01 3.16
0.08 0.18 0.56 0.94 1.22 1.24 0.81 0.84 1.19 1.19 1.21 1.24 1.20 1.24 1.25 1.19 1.15 1.15 1.25 1.40 1.59 1.83 2.02 2.07 2.18 2.26 2.32 2.40 2.58 2.74 2.77 2.81 2.69 2.63 2.69 2.69 2.49 2.40 2.52 2.45 2.59 2.61 2.65 2.69 2.80 2.88 2.85 2.98 3.14
0.13 0.20 0.62 0.96 1.00 1.06 0.91 1.16 1.49 1.18 1.09 1.03 1.10 1.20 1.20 1.06 1.00 1.03 1.13 1.19 1.28 1.47 1.70 1.75 1.85 1.96 2.12 2.19 2.29 2.40 2.42 2.44 2.32 2.41 2.43 2.35 2.11 2.04 2.26 2.41 2.42 2.40 2.43 2.54 2.80 2.63 2.67 2.87 2.91
0.19 0.21 0.28 0.53 0.64 0.81 1.01 1.30 1.46 1.14 1.10 1.21 1.32 1.30 1.25 1.01 0.86 0.89 0.90 0.94 0.96 1.07 1.24 1.37 1.64 1.79 1.90 2.01 2.10 2.13 2.09 2.16 2.12 2.19 2.35 2.22 2.19 2.06 2.14 2.19 2.29 2.38 2.51 2.70 2.86 2.68 2.79 3.03 2.89
0.17 0.17 0.23 0.46 0.70 0.88 0.98 1.35 1.65 1.59 1.43 1.36 1.41 1.25 0.98 0.81 0.71 0.68 0.69 0.69 0.78 0.90 1.01 1.18 1.39 1.48 1.59 1.79 1.92 1.82 2.01 2.09 2.08 2.08 2.02 2.05 2.14 2.12 2.00 1.95 2.03 2.10 2.22 2.41 2.59 2.50 2.64 2.90 2.86
0.20 0.23 0.31 0.45 0.49 0.72 1.11 1.34 1.26 1.31 1.24 1.27 1.25 1.08 0.85 0.69 0.64 0.66 0.66 0.69 0.77 0.83 0.99 1.19 1.41 1.53 1.54 1.63 1.75 1.80 1.90 2.02 2.05 1.98 1.89 1.93 2.01 2.06 1.99 1.96 1.96 1.94 1.91 2.01 2.18 2.20 2.45 2.49 2.51
0.18 0.21 0.31 0.45 0.44 0.49 0.79 1.05 0.74 0.78 0.80 0.87 0.93 0.81 0.74 0.70 0.66 0.73 0.79 0.79 0.81 0.91 1.06 1.24 1.40 1.55 1.60 1.71 1.90 2.04 2.00 1.99 2.02 1.97 1.87 1.79 1.75 1.83 1.93 1.98 1.90 1.77 1.81 1.96 1.97 2.03 2.30 2.40 2.38

GEFSSGP_prec_meanprecacc_318.txt.gz
Total_Precipitation_Accumulation
0.23 0.47 0.89 1.10 1.48 1.91 1.75 1.41 0.92 0.68 0.66 0.71 0.63 0.61 0.79 0.96 1.37 2.49 2.63 2.41 1.64 1.57 1.90 2.01 1.95 1.68 1.57 1.57 1.70 1.64 1.57 1.61 1.72 1.75 1.81 1.91 2.05 2.05 2.04 2.15 2.42 2.70 2.91 3.00 3.00 2.94 2.91 2.87 2.82
0.40 0.73 0.89 1.06 1.69 2.02 1.73 1.33 0.82 0.68 0.57 0.58 0.62 0.56 0.75 0.89 0.95 1.56 2.06 1.90 1.23 1.14 1.42 1.52 1.65 1.57 1.47 1.35 1.45 1.53 1.44 1.47 1.63 1.90 2.10 2.19 2.34 2.32 2.34 2.44 2.59 2.79 2.78 2.87 2.88 2.82 2.69 2.68 2.67
0.42 0.64 0.82 1.03 1.33 1.45 1.23 0.92 0.55 0.48 0.40 0.43 0.55 0.49 0.73 1.18 1.09 1.40 1.63 1.41 1.10 1.04 1.15 1.38 1.34 1.27 1.34 1.32 1.39 1.51 1.54 1.53 1.56 1.83 2.15 2.39 2.59 2.61 2.68 2.80 2.90 2.96 2.77 2.64 2.67 2.70 2.46 2.48 2.51
0.53 0.67 0.65 0.67 0.77 0.77 0.62 0.56 0.40 0.39 0.38 0.36 0.45 0.63 1.01 1.11 1.03 1.21 1.22 1.11 0.88 0.88 0.94 1.07 1.26 1.24 1.28 1.30 1.31 1.32 1.44 1.60 1.73 1.95 2.24 2.46 2.67 2.82 3.00 3.00 3.04 3.00 2.77 2.68 2.64 2.58 2.42 2.48 2.57
0.60 0.61 0.59 0.46 0.45 0.56 0.50 0.42 0.34 0.38 0.35 0.39 0.49 0.88 1.46 1.37 0.98 0.97 1.01 0.93 0.79 0.75 0.89 0.99 1.18 1.26 1.28 1.23 1.25 1.28 1.36 1.63 1.83 1.91 2.01 2.21 2.43 2.78 2.91 2.89 2.89 2.75 2.62 2.55 2.57 2.57 2.44 2.41 2.54
0.48 0.50 0.48 0.32 0.33 0.44 0.41 0.33 0.32 0.30 0.32 0.44 0.61 0.94 1.50 1.50 1.23 1.15 1.18 1.03 0.96 0.79 0.76 0.96 1.14 1.23 1.24 1.18 1.21 1.29 1.47 1.68 1.88 1.87 1.89 2.00 2.24 2.51 2.54 2.53 2.51 2.42 2.47 2.48 2.53 2.54 2.39 2.28 2.56
0.43 0.36 0.28 0.21 0.24 0.33 0.34 0.30 0.31 0.29 0.36 0.54 0.72 1.08 1.47 1.68 1.46 1.27 1.38 1.44 1.23 1.00 0.90 0.96 1.02 1.05 1.13 1.23 1.28 1.46 1.68 1.84 1.88 1.85 1.89 2.04 2.18 2.24 2.17 2.21 2.25 2.26 2.30 2.36 2.38 2.30 2.21 2.21 2.41
0.21 0.22 0.19 0.14 0.16 0.26 0.24 0.23 0.23 0.27 0.41 0.49 0.67 1.13 1.53 1.49 1.43 1.41 1.56 1.71 1.64 1.30 1.19 1.09 1.10 1.12 1.07 1.18 1.41 1.61 1.81 1.96 2.02 2.02 2.11 2.25 2.32 2.23 2.28 2.20 2.23 2.29 2.41 2.49 2.57 2.48 2.35 2.31 2.34
0.16 0.16 0.13 0.11 0.11 0.17 0.15 0.19 0.24 0.21 0.25 0.43 0.64 0.97 1.10 1.04 1.17 1.39 1.61 1.82 2.01 1.79 1.52 1.36 1.21 1.23 1.34 1.30 1.39 1.77 1.98 2.10 2.15 2.39 2.61 2.73 2.67 2.46 2.61 2.44 2.64 2.66 2.72 2.79 2.95 2.88 2.63 2.48 2.38
0.10 0.09 0.07 0.05 0.05 0.07 0.11 0.16 0.22 0.20 0.39 0.66 0.81 0.94 0.88 1.04 1.15 1.40 1.61 1.76 1.90 2.06 1.66 1.54 1.35 1.30 1.38 1.50 1.84 2.14 2.04 2.19 2.45 2.77 2.95 3.16 3.08 3.01 2.60 2.86 3.20 3.41 3.66 3.61 3.57 3.43 3.07 2.55 2.36
0.04 0.05 0.04 0.03 0.02 0.04 0.09 0.11 0.17 0.22 0.56 1.01 1.17 1.21 1.14 1.10 1.25 1.52 1.81 1.92 1.81 1.91 1.71 1.67 1.69 1.76 1.64 1.77 2.01 2.26 2.31 2.49 2.64 2.76 2.96 3.17 2.91 2.84 2.93 3.23 3.57 3.80 3.95 3.83 3.85 3.85 3.32 2.91 2.80
0.02 0.02 0.03 0.02 0.02 0.04 0.08 0.10 0.15 0.25 0.55 0.82 1.10 1.10 1.26 1.24 1.35 1.61 1.99 2.23 2.25 2.41 2.19 2.08 2.13 2.14 2.10 2.05 2.19 2.29 2.32 2.43 2.59 2.78 2.78 2.93 3.12 3.20 3.33 3.70 3.66 3.79 3.91 4.25 3.95 4.08 3.76 3.33 3.05
0.03 0.03 0.03 0.03 0.03 0.04 0.09 0.17 0.18 0.28 0.40 0.59 0.85 0.88 0.97 1.29 1.68 2.08 2.51 2.56 2.73 2.99 3.02 2.78 2.51 2.38 2.43 2.60 2.56 2.39 2.51 2.63 2.74 2.95 2.92 2.92 3.24 3.42 3.53 3.64 3.81 3.52 3.55 3.97 4.15 3.92 4.04 4.00 3.70
0.03 0.04 0.04 0.04 0.04 0.07 0.11 0.24 0.30 0.40 0.48 0.53 0.80 1.05 1.11 1.47 1.82 2.41 3.11 3.06 2.88 3.15 3.29 3.04 2.86 2.75 2.82 3.11 3.18 3.00 2.82 3.06 3.07 3.05 3.00 3.08 3.35 3.73 3.91 3.83 3.94 3.71 3.47 3.66 3.89 3.89 4.54 4.38 4.21
0.05 0.06 0.07 0.08 0.10 0.13 0.20 0.43 0.55 0.55 0.51 0.60 0.90 1.23 1.49 1.65 1.97 2.34 2.77 3.15 3.32 3.44 3.35 3.30 3.28 3.21 3.37 3.53 3.45 3.22 3.15 3.06 3.12 3.18 3.25 3.27 3.29 3.70 3.92 4.11 4.07 3.81 3.56 3.76 3.92 4.14 4.45 4.24 4.07
0.06 0.10 0.14 0.14 0.15 0.16 0.27 0.69 0.67 0.55 0.54 0.86 1.06 1.40 1.73 1.81 2.07 2.48 2.86 3.43 3.72 3.75 3.73 3.74 3.56 3.66 3.86 3.96 3.83 3.65 3.52 3.36 3.14 3.08 3.29 3.38 3.50 3.73 3.94 3.87 3.77 3.85 3.75 3.97 4.27 4.40 4.49 4.41 4.22
0.12 0.15 0.19 0.17 0.19 0.17 0.23 0.50 0.63 0.59 0.77 1.05 1.28 1.59 1.90 2.17 2.62 3.13 3.40 3.52 3.89 4.23 4.40 4.45 4.38 4.28 4.27 4.27 4.18 4.22 4.19 3.97 3.61 3.46 3.51 3.60 3.52 3.53 3.75 3.73 3.83 3.89 3.89 3.94 3.63 4.22 4.28 4.41 4.28
0.15 0.14 0.18 0.21 0.18 0.20 0.28 0.44 0.56 0.64 0.86 1.28 1.65 1.89 2.15 2.56 3.07 3.44 3.71 4.06 4.21 4.49 5.02 5.03 4.90 4.93 4.99 4.96 4.67 4.68 4.45 4.17 4.02 3.95 4.07 3.83 3.61 3.47 3.70 3.70 3.83 3.85 3.95 3.99 3.94 4.25 4.23 4.09 4.07
0.13 0.15 0.19 0.22 0.19 0.22 0.38 0.57 0.62 0.80 1.09 1.40 1.75 1.98 2.32 2.66 3.04 3.48 3.56 3.83 4.16 4.76 5.26 5.53 5.61 5.55 5.32 5.01 4.66 4.46 4.42 4.37 4.16 3.94 3.75 3.62 3.50 3.55 3.91 3.80 4.14 4.04 3.84 3.80 3.89 4.18 4.11 3.83 3.89
0.11 0.15 0.19 0.22 0.19 0.21 0.41 0.61 0.71 1.04 1.36 1.42 1.59 1.72 1.92 2.36 2.70 3.05 3.24 3.34 3.77 4.37 4.84 5.03 4.85 4.85 4.72 4.50 4.44 4.41 4.63 4.34 4.08 3.91 3.75 3.44 3.40 3.49 3.51 3.90 3.84 3.89 4.04 3.94 3.90 4.12 3.95 3.54 3.71
0.11 0.11 0.16 0.23 0.23 0.29 0.44 0.82 1.00 1.21 1.34 1.38 1.46 1.60 1.71 2.00 2.31 2.64 2.80 2.95 3.20 3.33 3.62 3.84 4.04 4.06 3.98 3.98 3.96 4.05 4.30 4.13 3.99 3.84 3.73 3.34 3.17 3.16 3.32 3.47 3.65 3.99 3.88 3.90 3.95 3.87 3.80 3.55 3.53
0.11 0.10 0.11 0.16 0.24 0.39 0.54 1.14 1.36 1.30 1.34 1.46 1.45 1.41 1.65 1.95 1.95 2.07 2.32 2.49 2.78 2.97 3.18 3.28 3.37 3.52 3.58 3.68 3.60 3.48 3.41 3.41 3.41 3.46 3.41 3.39 3.24 3.12 3.16 3.29 3.47 3.64 3.44 3.50 3.18 3.30 3.60 3.75 3.48
0.08 0.08 0.10 0.19 0.30 0.43 0.53 0.87 1.27 1.58 1.64 1.44 1.37 1.26 1.46 1.60 1.51 1.50 1.70 1.85 2.13 2.38 2.63 2.79 2.92 3.05 3.27 3.37 3.31 3.29 3.11 3.11 3.21 3.25 3.27 3.25 3.21 3.13 3.08 3.10 3.19 3.21 3.05 3.11 3.04 3.26 3.27 3.28 3.29
0.06 0.11 0.18 0.34 0.53 0.78 0.64 0.78 1.21 1.53 1.78 1.52 1.30 1.21 1.31 1.29 1.25 1.38 1.53 1.64 1.80 2.12 2.31 2.43 2.57 2.63 2.83 2.98 3.08 3.17 3.13 3.05 3.04 3.05 3.06 3.06 3.08 2.97 2.88 2.82 2.87 2.89 2.87 2.92 2.96 3.10 3.00 3.05 3.21
0.08 0.18 0.59 0.97 1.25 1.25 0.81 0.85 1.20 1.19 1.21 1.25 1.20 1.24 1.25 1.19 1.15 1.16 1.25 1.40 1.59 1.83 2.02 2.08 2.19 2.27 2.34 2.46 2.66 2.81 2.83 2.86 2.75 2.68 2.72 2.73 2.55 2.47 2.58 2.49 2.62 2.65 2.70 2.75 2.85 2.93 2.88 3.02 3.19
0.13 0.20 0.65 1.00 1.04 1.07 0.92 1.18 1.50 1.18 1.09 1.03 1.10 1.20 1.20 1.06 1.00 1.03 1.13 1.19 1.28 1.48 1.70 1.76 1.86 1.97 2.14 2.21 2.34 2.46 2.49 2.52 2.38 2.46 2.46 2.38 2.15 2.10 2.32 2.45 2.47 2.46 2.49 2.59 2.85 2.68 2.72 2.93 2.96
0.19 0.21 0.29 0.55 0.65 0.83 1.02 1.30 1.47 1.14 1.10 1.21 1.32 1.30 1.25 1.01 0.86 0.89 0.90 0.94 0.96 1.07 1.25 1.38 1.65 1.80 1.91 2.02 2.13 2.15 2.13 2.21 2.17 2.25 2.39 2.24 2.21 2.09 2.17 2.21 2.32 2.43 2.57 2.75 2.92 2.75 2.84 3.08 2.95
0.17 0.18 0.23 0.47 0.72 0.89 0.99 1.36 1.65 1.59 1.43 1.36 1.41 1.25 0.98 0.81 0.71 0.68 0.69 0.69 0.78 0.90 1.01 1.18 1.40 1.49 1.60 1.80 1.93 1.83 2.03 2.11 2.10 2.12 2.05 2.06 2.15 2.13 2.01 1.97 2.05 2.13 2.25 2.45 2.63 2.54 2.68 2.94 2.91
0.20 0.23 0.32 0.45 0.50 0.74 1.13 1.37 1.27 1.31 1.24 1.27 1.25 1.08 0.85 0.70 0.64 0.66 0.66 0.69 0.77 0.84 1.00 1.19 1.42 1.55 1.55 1.63 1.76 1.82 1.92 2.04 2.06 1.99 1.90 1.94 2.02 2.07 2.00 1.97 1.98 1.97 1.93 2.02 2.19 2.21 2.47 2.52 2.55
0.18 0.21 0.31 0.46 0.44 0.49 0.81 1.07 0.75 0.78 0.80 0.87 0.93 0.81 0.74 0.71 0.66 0.73 0.79 0.79 0.81 0.91 1.06 1.25 1.41 1.56 1.61 1.72 1.91 2.04 2.01 2.00 2.02 1.98 1.87 1.79 1.75 1.84 1.94 1.99 1.91 1.80 1.84 1.98 1.98 2.04 2.31 2.42 2.40

GEFSSGP_prec_meanprecacc_324.txt.gz
Total_Precipitation_Accumulation
0.25 0.51 0.97 1.23 1.65 2.08 1.84 1.46 0.93 0.68 0.67 0.72 0.64 0.62 0.79 0.99 1.41 2.54 2.70 2.50 1.70 1.61 1.94 2.05 1.99 1.72 1.60 1.60 1.73 1.66 1.60 1.65 1.79 1.81 1.86 1.95 2.09 2.09 2.08 2.17 2.45 2.74 2.95 3.06 3.07 3.03 3.01 2.95 2.90
0.44 0.80 1.00 1.19 1.82 2.10 1.78 1.35 0.83 0.68 0.57 0.59 0.63 0.56 0.76 0.91 0.98 1.60 2.14 1.99 1.29 1.18 1.46 1.56 1.69 1.60 1.50 1.37 1.47 1.55 1.46 1.51 1.67 1.94 2.15 2.24 2.39 2.37 2.38 2.47 2.61 2.81 2.82 2.92 2.95 2.90 2.77 2.76 2.73
0.48 0.73 0.96 1.22 1.44 1.49 1.26 0.93 0.56 0.48 0.41 0.43 0.55 0.49 0.73 1.19 1.13 1.45 1.69 1.48 1.16 1.08 1.20 1.43 1.39 1.30 1.37 1.34 1.42 1.54 1.57 1.58 1.60 1.87 2.18 2.42 2.62 2.66 2.73 2.83 2.93 2.99 2.80 2.68 2.74 2.77 2.54 2.56 2.57
0.63 0.81 0.80 0.81 0.84 0.79 0.63 0.57 0.41 0.39 0.38 0.36 0.45 0.63 1.02 1.12 1.06 1.25 1.26 1.14 0.92 0.92 0.98 1.13 1.32 1.29 1.33 1.35 1.36 1.37 1.49 1.65 1.78 1.99 2.27 2.50 2.69 2.85 3.03 3.02 3.06 3.02 2.79 2.72 2.69 2.64 2.50 2.55 2.62
0.76 0.82 0.73 0.52 0.47 0.58 0.51 0.43 0.35 0.38 0.35 0.39 0.49 0.88 1.47 1.40 1.00 0.98 1.03 0.95 0.81 0.77 0.92 1.06 1.25 1.31 1.33 1.28 1.32 1.35 1.42 1.69 1.90 1.97 2.08 2.26 2.45 2.80 2.93 2.91 2.91 2.77 2.66 2.60 2.63 2.64 2.52 2.49 2.59
0.59 0.66 0.57 0.35 0.34 0.44 0.42 0.34 0.33 0.30 0.32 0.44 0.61 0.94 1.52 1.52 1.24 1.17 1.18 1.03 0.97 0.80 0.78 0.99 1.20 1.29 1.29 1.24 1.29 1.37 1.56 1.78 1.96 1.94 1.95 2.05 2.28 2.54 2.57 2.55 2.54 2.46 2.52 2.56 2.61 2.61 2.45 2.35 2.61
0.55 0.50 0.34 0.23 0.25 0.34 0.34 0.30 0.32 0.29 0.36 0.54 0.72 1.09 1.49 1.70 1.48 1.28 1.38 1.46 1.24 1.00 0.91 0.98 1.05 1.08 1.17 1.30 1.37 1.60 1.82 1.93 1.96 1.90 1.92 2.09 2.23 2.28 2.21 2.25 2.28 2.29 2.34 2.42 2.48 2.40 2.26 2.26 2.46
0.29 0.30 0.23 0.16 0.17 0.27 0.25 0.24 0.24 0.29 0.41 0.49 0.67 1.14 1.55 1.51 1.45 1.42 1.56 1.72 1.65 1.31 1.21 1.10 1.11 1.12 1.08 1.22 1.50 1.74 1.88 2.01 2.06 2.06 2.14 2.30 2.37 2.28 2.32 2.25 2.28 2.33 2.44 2.53 2.65 2.60 2.42 2.36 2.38
0.19 0.20 0.16 0.13 0.12 0.18 0.16 0.20 0.25 0.22 0.26 0.43 0.65 0.98 1.11 1.06 1.19 1.40 1.61 1.83 2.03 1.80 1.54 1.40 1.23 1.25 1.36 1.32 1.41 1.82 2.03 2.15 2.20 2.43 2.64 2.77 2.69 2.48 2.63 2.48 2.72 2.73 2.76 2.82 2.99 2.95 2.69 2.51 2.42
0.14 0.12 0.09 0.06 0.06 0.07 0.11 0.17 0.23 0.21 0.40 0.67 0.81 0.94 0.89 1.04 1.15 1.41 1.62 1.77 1.92 2.08 1.69 1.58 1.40 1.35 1.42 1.53 1.86 2.16 2.05 2.21 2.47 2.80 2.97 3.19 3.12 3.04 2.63 2.91 3.26 3.48 3.73 3.67 3.62 3.47 3.11 2.58 2.39
0.11 0.08 0.05 0.04 0.03 0.04 0.10 0.11 0.18 0.23 0.57 1.03 1.18 1.21 1.15 1.11 1.25 1.53 1.83 1.94 1.84 1.94 1.76 1.72 1.74 1.80 1.67 1.79 2.04 2.29 2.34 2.52 2.68 2.79 2.99 3.20 2.94 2.87 2.96 3.29 3.62 3.87 4.03 3.91 3.93 3.91 3.36 2.94 2.83
0.06 0.04 0.04 0.03 0.03 0.04 0.08 0.10 0.15 0.25 0.56 0.83 1.11 1.10 1.26 1.24 1.36 1.63 2.01 2.25 2.27 2.43 2.22 2.10 2.15 2.16 2.12 2.07 2.21 2.32 2.37 2.51 2.66 2.83 2.83 2.97 3.16 3.23 3.37 3.75 3.71 3.83 3.96 4.32 4.00 4.14 3.80 3.36 3.09
0.04 0.03 0.04 0.04 0.04 0.04 0.09 0.17 0.18 0.29 0.40 0.60 0.86 0.89 0.97 1.29 1.69 2.11 2.52 2.57 2.74 3.00 3.03 2.79 2.52 2.39 2.45 2.62 2.58 2.40 2.54 2.69 2.79 3.00 2.97 2.97 3.29 3.48 3.58 3.70 3.86 3.56 3.60 4.05 4.19 3.95 4.08 4.04 3.75
0.04 0.04 0.04 0.05 0.05 0.07 0.11 0.24 0.30 0.41 0.48 0.54 0.80 1.05 1.11 1.48 1.84 2.44 3.13 3.09 2.92 3.18 3.31 3.06 2.88 2.77 2.84 3.13 3.20 3.02 2.85 3.10 3.12 3.10 3.04 3.13 3.40 3.78 3.98 3.91 4.00 3.74 3.50 3.69 3.91 3.92 4.57 4.43 4.27
0.05 0.07 0.08 0.09 0.11 0.14 0.21 0.43 0.56 0.55 0.51 0.60 0.90 1.23 1.50 1.66 2.00 2.38 2.82 3.21 3.39 3.48 3.37 3.32 3.29 3.23 3.39 3.54 3.48 3.26 3.19 3.09 3.16 3.23 3.30 3.30 3.31 3.74 3.99 4.18 4.14 3.86 3.60 3.81 3.96 4.18 4.50 4.28 4.14
0.06 0.11 0.16 0.16 0.16 0.17 0.28 0.70 0.68 0.56 0.55 0.86 1.06 1.40 1.74 1.82 2.09 2.52 2.93 3.50 3.78 3.78 3.74 3.75 3.58 3.68 3.88 3.98 3.86 3.69 3.56 3.39 3.18 3.12 3.33 3.41 3.52 3.76 3.99 3.92 3.82 3.91 3.81 4.02 4.31 4.46 4.55 4.47 4.28
0.13 0.16 0.21 0.20 0.20 0.18 0.25 0.51 0.64 0.59 0.77 1.05 1.28 1.59 1.90 2.18 2.65 3.16 3.45 3.58 3.94 4.26 4.41 4.46 4.40 4.30 4.29 4.30 4.20 4.24 4.22 4.00 3.65 3.49 3.55 3.63 3.55 3.56 3.78 3.77 3.87 3.93 3.92 3.97 3.66 4.27 4.32 4.45 4.32
0.16 0.15 0.19 0.23 0.19 0.21 0.30 0.45 0.57 0.64 0.86 1.28 1.65 1.89 2.16 2.57 3.09 3.48 3.75 4.11 4.25 4.51 5.03 5.04 4.91 4.93 5.00 4.98 4.68 4.70 4.49 4.22 4.06 3.99 4.11 3.89 3.68 3.51 3.72 3.74 3.88 3.88 3.97 4.01 3.97 4.29 4.27 4.13 4.10
0.14 0.16 0.20 0.24 0.20 0.23 0.41 0.60 0.64 0.81 1.10 1.41 1.76 1.99 2.33 2.67 3.05 3.50 3.60 3.86 4.17 4.78 5.27 5.55 5.63 5.56 5.33 5.02 4.67 4.48 4.45 4.40 4.19 3.96 3.79 3.68 3.55 3.58 3.94 3.84 4.19 4.07 3.87 3.82 3.91 4.20 4.14 3.87 3.92
0.13 0.17 0.21 0.24 0.21 0.23 0.43 0.64 0.72 1.05 1.38 1.43 1.60 1.73 1.93 2.37 2.71 3.06 3.26 3.35 3.78 4.38 4.84 5.04 4.86 4.87 4.74 4.51 4.44 4.42 4.65 4.37 4.11 3.94 3.77 3.48 3.44 3.54 3.56 3.94 3.89 3.93 4.07 3.97 3.92 4.14 3.98 3.58 3.74
0.11 0.12 0.16 0.24 0.24 0.30 0.47 0.86 1.02 1.22 1.35 1.38 1.47 1.61 1.72 2.01 2.33 2.67 2.82 2.97 3.21 3.34 3.63 3.85 4.05 4.06 3.99 3.99 3.97 4.06 4.32 4.17 4.03 3.87 3.75 3.37 3.20 3.20 3.35 3.51 3.69 4.03 3.91 3.91 3.96 3.89 3.82 3.59 3.56
0.11 0.11 0.11 0.17 0.26 0.42 0.57 1.17 1.37 1.31 1.35 1.47 1.45 1.42 1.66 1.96 1.96 2.08 2.34 2.51 2.79 2.98 3.19 3.29 3.38 3.53 3.59 3.70 3.61 3.49 3.42 3.43 3.44 3.49 3.44 3.42 3.27 3.15 3.18 3.31 3.50 3.68 3.46 3.52 3.20 3.32 3.61 3.77 3.52
0.08 0.09 0.10 0.20 0.31 0.45 0.54 0.90 1.29 1.59 1.66 1.45 1.37 1.26 1.47 1.60 1.51 1.51 1.70 1.85 2.14 2.40 2.64 2.79 2.92 3.06 3.28 3.39 3.33 3.31 3.12 3.14 3.24 3.28 3.30 3.29 3.23 3.15 3.11 3.12 3.21 3.23 3.07 3.13 3.05 3.29 3.28 3.30 3.31
0.07 0.11 0.19 0.35 0.54 0.81 0.66 0.80 1.24 1.55 1.79 1.53 1.31 1.22 1.32 1.29 1.26 1.38 1.54 1.65 1.81 2.13 2.33 2.45 2.58 2.65 2.85 3.01 3.10 3.19 3.15 3.07 3.06 3.08 3.08 3.08 3.09 2.99 2.91 2.84 2.89 2.90 2.89 2.93 2.98 3.13 3.03 3.07 3.23
0.09 0.19 0.61 1.00 1.28 1.28 0.83 0.86 1.23 1.20 1.22 1.25 1.21 1.24 1.26 1.19 1.15 1.16 1.25 1.40 1.59 1.84 2.04 2.10 2.21 2.30 2.37 2.49 2.67 2.83 2.85 2.89 2.76 2.69 2.74 2.74 2.56 2.48 2.60 2.52 2.64 2.67 2.72 2.76 2.87 2.95 2.92 3.05 3.21
0.13 0.21 0.67 1.06 1.09 1.10 0.93 1.19 1.52 1.21 1.12 1.05 1.13 1.21 1.20 1.07 1.00 1.03 1.13 1.19 1.29 1.49 1.72 1.79 1.90 2.02 2.19 2.26 2.38 2.49 2.52 2.54 2.40 2.48 2.48 2.40 2.17 2.12 2.35 2.48 2.49 2.48 2.51 2.60 2.86 2.69 2.75 2.96 3.00
0.20 0.22 0.30 0.57 0.67 0.85 1.04 1.34 1.54 1.20 1.13 1.23 1.34 1.31 1.26 1.01 0.86 0.89 0.90 0.95 0.98 1.09 1.27 1.41 1.67 1.83 1.94 2.05 2.17 2.18 2.15 2.24 2.20 2.26 2.41 2.26 2.23 2.10 2.19 2.23 2.34 2.45 2.60 2.77 2.93 2.76 2.86 3.11 3.00
0.18 0.18 0.25 0.50 0.75 0.93 1.02 1.41 1.71 1.61 1.44 1.37 1.42 1.27 0.99 0.81 0.72 0.69 0.69 0.70 0.79 0.92 1.06 1.25 1.44 1.51 1.62 1.84 1.98 1.89 2.09 2.16 2.14 2.14 2.06 2.07 2.16 2.14 2.02 1.98 2.06 2.15 2.27 2.47 2.64 2.55 2.70 2.96 2.93
0.20 0.23 0.32 0.47 0.54 0.78 1.17 1.40 1.35 1.35 1.26 1.29 1.26 1.09 0.86 0.71 0.65 0.66 0.67 0.69 0.78 0.85 1.02 1.23 1.46 1.57 1.57 1.68 1.82 1.89 1.97 2.08 2.10 2.03 1.93 1.96 2.03 2.08 2.01 1.98 2.00 1.99 1.95 2.04 2.20 2.21 2.47 2.53 2.57
0.18 0.22 0.31 0.47 0.47 0.52 0.84 1.11 0.78 0.81 0.81 0.88 0.94 0.81 0.75 0.72 0.67 0.73 0.79 0.80 0.82 0.93 1.08 1.27 1.44 1.60 1.66 1.78 1.97 2.11 2.05 2.05 2.09 2.05 1.92 1.82 1.77 1.86 1.96 2.00 1.93 1.81 1.85 1.99 1.99 2.05 2.32 2.43 2.41

GEFSSGP_prec_meanprecacc_330.txt.gz
Total_Precipitation_Accumulation
0.27 0.53 0.99 1.26 1.72 2.15 1.88 1.49 0.95 0.70 0.70 0.75 0.66 0.62 0.80 1.00 1.44 2.63 2.81 2.59 1.74 1.64 1.98 2.10 2.05 1.77 1.64 1.63 1.77 1.70 1.63 1.69 1.83 1.86 1.95 2.04 2.16 2.16 2.14 2.21 2.48 2.77 2.99 3.11 3.13 3.12 3.10 3.06 2.99
0.45 0.82 1.02 1.24 1.89 2.14 1.81 1.37 0.84 0.70 0.59 0.60 0.64 0.57 0.76 0.91 1.01 1.70 2.29 2.09 1.34 1.22 1.49 1.59 1.73 1.65 1.53 1.39 1.50 1.58 1.49 1.55 1.71 2.01 2.24 2.31 2.44 2.43 2.43 2.51 2.65 2.85 2.86 2.98 3.05 3.02 2.87 2.84 2.81
0.50 0.75 0.98 1.25 1.46 1.51 1.29 0.95 0.57 0.49 0.41 0.43 0.55 0.49 0.74 1.21 1.16 1.52 1.82 1.58 1.21 1.12 1.24 1.47 1.43 1.34 1.40 1.36 1.44 1.56 1.60 1.60 1.62 1.90 2.22 2.46 2.67 2.70 2.77 2.87 2.97 3.04 2.85 2.76 2.83 2.85 2.60 2.63 2.65
0.65 0.83 0.82 0.83 0.86 0.81 0.65 0.58 0.41 0.40 0.38 0.36 0.45 0.63 1.03 1.14 1.10 1.30 1.32 1.20 0.96 0.95 1.02 1.17 1.37 1.34 1.37 1.38 1.40 1.40 1.52 1.67 1.80 2.03 2.30 2.52 2.72 2.89 3.06 3.06 3.11 3.08 2.86 2.78 2.76 2.69 2.56 2.62 2.70
0.78 0.83 0.76 0.55 0.49 0.60 0.52 0.43 0.35 0.39 0.35 0.40 0.49 0.89 1.48 1.41 1.02 1.01 1.05 0.97 0.84 0.80 0.95 1.10 1.31 1.37 1.39 1.33 1.37 1.41 1.47 1.73 1.94 2.01 2.11 2.29 2.49 2.84 2.96 2.93 2.95 2.83 2.71 2.64 2.67 2.68 2.56 2.56 2.68
0.61 0.67 0.58 0.36 0.36 0.45 0.42 0.34 0.33 0.31 0.32 0.45 0.62 0.95 1.53 1.53 1.25 1.19 1.20 1.05 0.99 0.82 0.81 1.03 1.26 1.35 1.35 1.30 1.38 1.47 1.64 1.85 2.02 1.98 1.99 2.08 2.32 2.58 2.60 2.58 2.59 2.52 2.57 2.59 2.64 2.64 2.49 2.40 2.67
0.57 0.51 0.35 0.23 0.25 0.34 0.35 0.30 0.32 0.30 0.37 0.55 0.72 1.09 1.49 1.72 1.49 1.29 1.40 1.48 1.26 1.03 0.94 1.02 1.10 1.15 1.23 1.35 1.45 1.70 1.90 2.01 2.02 1.95 1.96 2.13 2.27 2.31 2.25 2.30 2.34 2.35 2.39 2.46 2.52 2.45 2.34 2.31 2.52
0.31 0.31 0.23 0.16 0.17 0.27 0.25 0.25 0.25 0.29 0.41 0.49 0.67 1.14 1.56 1.52 1.46 1.43 1.58 1.74 1.69 1.34 1.26 1.16 1.17 1.18 1.12 1.27 1.59 1.84 1.98 2.10 2.12 2.11 2.19 2.35 2.43 2.33 2.37 2.30 2.34 2.39 2.49 2.57 2.70 2.68 2.50 2.42 2.45
0.20 0.21 0.17 0.13 0.12 0.18 0.16 0.22 0.26 0.22 0.26 0.43 0.65 0.98 1.12 1.06 1.19 1.41 1.63 1.86 2.06 1.85 1.59 1.45 1.27 1.28 1.38 1.35 1.47 1.92 2.16 2.24 2.27 2.49 2.71 2.84 2.74 2.51 2.66 2.52 2.78 2.81 2.84 2.89 3.04 3.00 2.73 2.58 2.50
0.14 0.13 0.09 0.07 0.07 0.07 0.12 0.18 0.24 0.22 0.40 0.67 0.81 0.95 0.89 1.05 1.16 1.41 1.62 1.78 1.93 2.11 1.73 1.61 1.42 1.38 1.44 1.55 1.90 2.24 2.14 2.29 2.54 2.86 3.03 3.26 3.17 3.09 2.66 2.95 3.32 3.57 3.82 3.76 3.70 3.54 3.17 2.65 2.45
0.11 0.08 0.05 0.04 0.03 0.04 0.11 0.12 0.18 0.23 0.58 1.03 1.19 1.22 1.15 1.11 1.25 1.53 1.83 1.95 1.84 1.96 1.78 1.75 1.76 1.82 1.70 1.82 2.08 2.33 2.38 2.58 2.74 2.84 3.04 3.24 2.97 2.89 3.00 3.32 3.65 3.93 4.11 3.99 4.02 3.99 3.42 3.01 2.90
0.07 0.04 0.04 0.03 0.03 0.05 0.09 0.11 0.15 0.25 0.56 0.83 1.12 1.11 1.27 1.25 1.36 1.63 2.01 2.25 2.28 2.45 2.24 2.12 2.17 2.17 2.15 2.09 2.23 2.34 2.39 2.57 2.73 2.87 2.86 3.00 3.18 3.25 3.39 3.76 3.74 3.87 4.01 4.37 4.05 4.19 3.87 3.46 3.16
0.04 0.03 0.04 0.04 0.04 0.05 0.09 0.18 0.18 0.29 0.40 0.60 0.86 0.90 0.98 1.30 1.69 2.11 2.52 2.57 2.75 3.02 3.05 2.80 2.53 2.41 2.47 2.64 2.60 2.43 2.56 2.71 2.82 3.03 3.00 2.99 3.31 3.50 3.60 3.73 3.91 3.62 3.67 4.11 4.25 4.02 4.14 4.12 3.82
0.04 0.04 0.04 0.06 0.06 0.08 0.12 0.24 0.31 0.41 0.49 0.54 0.81 1.07 1.13 1.50 1.84 2.44 3.13 3.10 2.94 3.19 3.32 3.06 2.89 2.79 2.86 3.15 3.22 3.04 2.87 3.13 3.15 3.12 3.06 3.15 3.41 3.80 4.00 3.95 4.06 3.82 3.58 3.77 4.01 4.00 4.63 4.47 4.32
0.06 0.07 0.08 0.10 0.12 0.15 0.21 0.44 0.56 0.56 0.52 0.60 0.91 1.24 1.52 1.68 2.01 2.39 2.83 3.23 3.40 3.49 3.39 3.33 3.30 3.24 3.42 3.56 3.50 3.27 3.21 3.12 3.19 3.25 3.31 3.31 3.32 3.75 4.01 4.21 4.18 3.92 3.67 3.90 4.06 4.26 4.54 4.31 4.17
0.07 0.11 0.16 0.17 0.17 0.18 0.28 0.71 0.68 0.56 0.55 0.87 1.07 1.42 1.77 1.84 2.11 2.54 2.95 3.52 3.79 3.79 3.76 3.77 3.59 3.69 3.90 4.00 3.87 3.70 3.58 3.42 3.21 3.15 3.35 3.42 3.53 3.78 4.01 3.95 3.85 3.94 3.88 4.12 4.37 4.49 4.58 4.49 4.30
0.13 0.17 0.21 0.20 0.21 0.19 0.25 0.51 0.64 0.59 0.78 1.06 1.30 1.62 1.94 2.21 2.68 3.19 3.47 3.60 3.95 4.27 4.42 4.47 4.41 4.31 4.30 4.31 4.21 4.25 4.25 4.03 3.68 3.53 3.57 3.64 3.57 3.58 3.79 3.79 3.90 3.97 3.97 4.02 3.69 4.30 4.36 4.48 4.35
0.16 0.16 0.20 0.24 0.20 0.21 0.31 0.46 0.57 0.64 0.87 1.29 1.68 1.93 2.20 2.61 3.13 3.50 3.77 4.13 4.26 4.51 5.04 5.05 4.92 4.94 5.02 5.00 4.70 4.72 4.52 4.27 4.10 4.01 4.12 3.90 3.69 3.52 3.74 3.75 3.90 3.91 4.00 4.04 4.00 4.32 4.30 4.16 4.13
0.14 0.16 0.20 0.24 0.21 0.24 0.41 0.61 0.64 0.81 1.10 1.42 1.78 2.04 2.38 2.72 3.10 3.53 3.61 3.87 4.18 4.78 5.28 5.55 5.64 5.57 5.34 5.04 4.69 4.51 4.51 4.49 4.23 3.98 3.80 3.69 3.55 3.59 3.96 3.85 4.21 4.10 3.89 3.85 3.93 4.22 4.16 3.88 3.94
0.13 0.17 0.21 0.24 0.21 0.23 0.43 0.64 0.72 1.06 1.38 1.43 1.61 1.76 1.96 2.40 2.74 3.08 3.27 3.36 3.78 4.39 4.85 5.05 4.87 4.88 4.74 4.53 4.46 4.45 4.70 4.41 4.13 3.95 3.78 3.49 3.45 3.55 3.56 3.95 3.92 3.96 4.09 3.99 3.94 4.15 3.99 3.59 3.77
0.12 0.12 0.16 0.24 0.24 0.31 0.47 0.86 1.02 1.22 1.36 1.39 1.47 1.62 1.73 2.02 2.34 2.68 2.84 2.98 3.22 3.34 3.64 3.85 4.06 4.08 4.01 4.02 3.99 4.09 4.34 4.19 4.04 3.88 3.77 3.38 3.21 3.20 3.36 3.51 3.70 4.05 3.92 3.92 3.98 3.90 3.83 3.60 3.58
0.12 0.11 0.11 0.17 0.27 0.42 0.57 1.17 1.38 1.31 1.35 1.47 1.46 1.43 1.67 1.97 1.97 2.09 2.35 2.52 2.80 2.98 3.20 3.29 3.39 3.55 3.62 3.74 3.65 3.51 3.43 3.45 3.45 3.50 3.46 3.44 3.28 3.16 3.19 3.32 3.51 3.69 3.47 3.52 3.21 3.33 3.62 3.79 3.54
0.08 0.09 0.11 0.20 0.31 0.45 0.54 0.90 1.29 1.60 1.66 1.45 1.38 1.26 1.47 1.62 1.52 1.51 1.71 1.86 2.15 2.40 2.64 2.80 2.94 3.09 3.33 3.46 3.40 3.35 3.15 3.16 3.25 3.30 3.32 3.31 3.25 3.17 3.12 3.14 3.22 3.24 3.07 3.14 3.07 3.30 3.30 3.31 3.33
0.07 0.11 0.20 0.36 0.54 0.81 0.66 0.81 1.25 1.55 1.80 1.54 1.31 1.22 1.33 1.30 1.27 1.39 1.55 1.66 1.82 2.14 2.34 2.46 2.60 2.71 2.92 3.08 3.16 3.24 3.20 3.11 3.09 3.10 3.11 3.10 3.11 3.01 2.93 2.86 2.90 2.92 2.90 2.95 3.00 3.15 3.05 3.08 3.24
0.09 0.19 0.61 1.00 1.28 1.28 0.83 0.86 1.23 1.21 1.23 1.26 1.21 1.24 1.27 1.20 1.16 1.16 1.25 1.40 1.59 1.85 2.05 2.12 2.24 2.35 2.42 2.53 2.73 2.90 2.91 2.92 2.79 2.71 2.77 2.77 2.59 2.51 2.62 2.54 2.67 2.69 2.74 2.79 2.90 2.98 2.95 3.09 3.24
0.13 0.21 0.68 1.06 1.10 1.10 0.93 1.19 1.53 1.23 1.15 1.07 1.14 1.23 1.22 1.07 1.01 1.03 1.13 1.20 1.30 1.50 1.74 1.81 1.93 2.06 2.22 2.29 2.43 2.58 2.60 2.59 2.43 2.51 2.53 2.45 2.21 2.15 2.37 2.50 2.51 2.51 2.53 2.63 2.91 2.73 2.78 3.00 3.04
0.20 0.22 0.31 0.57 0.67 0.85 1.04 1.34 1.55 1.21 1.15 1.26 1.36 1.33 1.27 1.02 0.87 0.90 0.90 0.95 0.99 1.10 1.29 1.43 1.69 1.85 1.96 2.07 2.21 2.25 2.22 2.31 2.29 2.37 2.50 2.34 2.29 2.14 2.21 2.25 2.35 2.47 2.61 2.79 2.98 2.81 2.90 3.15 3.04
0.18 0.19 0.26 0.51 0.76 0.93 1.02 1.41 1.71 1.62 1.45 1.37 1.43 1.28 1.00 0.83 0.72 0.69 0.70 0.70 0.80 0.93 1.07 1.27 1.45 1.52 1.63 1.86 2.01 1.94 2.15 2.25 2.25 2.26 2.17 2.15 2.20 2.18 2.06 2.01 2.09 2.18 2.31 2.50 2.68 2.59 2.73 2.98 2.97
0.21 0.24 0.33 0.48 0.55 0.79 1.17 1.41 1.36 1.36 1.26 1.29 1.27 1.10 0.87 0.73 0.66 0.67 0.68 0.70 0.78 0.85 1.02 1.23 1.46 1.58 1.58 1.69 1.86 1.95 2.03 2.15 2.18 2.10 2.00 2.03 2.08 2.12 2.05 2.02 2.03 2.02 1.99 2.07 2.24 2.25 2.51 2.57 2.61
0.19 0.22 0.31 0.48 0.47 0.52 0.84 1.12 0.78 0.81 0.81 0.89 0.95 0.82 0.76 0.74 0.68 0.74 0.80 0.80 0.82 0.93 1.09 1.28 1.44 1.61 1.68 1.83 2.06 2.21 2.13 2.10 2.13 2.07 1.95 1.86 1.81 1.89 2.00 2.05 1.97 1.86 1.90 2.04 2.05 2.11 2.37 2.48 2.45

GEFSSGP_prec_meanprecacc_336.txt.gz
Total_Precipitation_Accumulation
0.28 0.54 1.00 1.27 1.73 2.16 1.90 1.51 0.95 0.71 0.71 0.77 0.67 0.64 0.83 1.06 1.55 2.77 2.90 2.63 1.76 1.66 2.00 2.15 2.08 1.80 1.68 1.67 1.81 1.74 1.68 1.74 1.90 1.96 2.05 2.15 2.23 2.22 2.19 2.25 2.53 2.83 3.07 3.20 3.21 3.19 3.19 3.14 3.08
0.46 0.83 1.03 1.25 1.91 2.15 1.84 1.39 0.85 0.70 0.59 0.62 0.65 0.58 0.79 0.96 1.10 1.84 2.36 2.12 1.36 1.23 1.51 1.62 1.76 1.68 1.57 1.45 1.55 1.62 1.54 1.61 1.79 2.09 2.32 2.39 2.52 2.51 2.49 2.56 2.72 2.92 2.94 3.06 3.11 3.07 2.93 2.93 2.90
0.51 0.75 0.99 1.26 1.48 1.53 1.31 0.96 0.58 0.49 0.41 0.44 0.56 0.50 0.77 1.26 1.23 1.62 1.88 1.62 1.23 1.14 1.26 1.50 1.46 1.38 1.45 1.42 1.49 1.59 1.65 1.66 1.67 1.96 2.29 2.52 2.74 2.79 2.85 2.93 3.04 3.10 2.94 2.85 2.91 2.91 2.66 2.70 2.73
0.66 0.84 0.83 0.85 0.88 0.82 0.66 0.59 0.42 0.40 0.38 0.36 0.46 0.66 1.08 1.21 1.17 1.36 1.35 1.22 0.98 0.97 1.03 1.19 1.41 1.38 1.41 1.42 1.43 1.44 1.58 1.73 1.84 2.08 2.36 2.57 2.79 2.96 3.13 3.14 3.21 3.17 2.96 2.86 2.82 2.76 2.62 2.68 2.76
0.78 0.84 0.78 0.57 0.50 0.60 0.52 0.44 0.35 0.39 0.36 0.40 0.49 0.91 1.52 1.46 1.06 1.04 1.08 1.00 0.86 0.81 0.97 1.13 1.35 1.41 1.43 1.37 1.41 1.45 1.53 1.78 1.98 2.05 2.17 2.34 2.54 2.89 3.01 3.00 3.04 2.91 2.77 2.70 2.72 2.73 2.62 2.59 2.73
0.61 0.68 0.60 0.38 0.36 0.46 0.42 0.34 0.33 0.31 0.33 0.45 0.62 0.96 1.56 1.56 1.28 1.21 1.24 1.08 1.01 0.84 0.82 1.05 1.29 1.41 1.41 1.36 1.44 1.54 1.71 1.92 2.08 2.04 2.05 2.15 2.38 2.64 2.66 2.65 2.65 2.60 2.64 2.64 2.70 2.71 2.55 2.44 2.71
0.57 0.51 0.36 0.24 0.26 0.34 0.35 0.31 0.33 0.30 0.37 0.55 0.72 1.10 1.52 1.74 1.51 1.33 1.44 1.51 1.29 1.05 0.96 1.05 1.14 1.19 1.28 1.40 1.51 1.75 1.95 2.08 2.09 2.00 2.01 2.20 2.33 2.38 2.31 2.36 2.40 2.44 2.47 2.53 2.58 2.51 2.40 2.37 2.56
0.31 0.32 0.24 0.16 0.17 0.27 0.26 0.26 0.26 0.30 0.42 0.50 0.68 1.15 1.58 1.55 1.49 1.47 1.64 1.80 1.74 1.39 1.30 1.20 1.20 1.22 1.17 1.36 1.67 1.90 2.05 2.18 2.20 2.18 2.26 2.42 2.49 2.41 2.44 2.37 2.42 2.48 2.57 2.65 2.77 2.74 2.56 2.49 2.51
0.20 0.22 0.18 0.13 0.12 0.18 0.17 0.22 0.27 0.23 0.27 0.44 0.65 0.99 1.13 1.08 1.23 1.47 1.71 1.94 2.15 1.94 1.67 1.50 1.32 1.34 1.44 1.47 1.62 2.04 2.26 2.32 2.35 2.59 2.79 2.91 2.81 2.58 2.73 2.58 2.86 2.93 2.97 3.01 3.14 3.07 2.80 2.66 2.57
0.15 0.13 0.09 0.07 0.07 0.07 0.12 0.19 0.25 0.23 0.41 0.68 0.82 0.95 0.89 1.05 1.17 1.44 1.67 1.83 1.99 2.18 1.78 1.65 1.45 1.41 1.48 1.63 2.03 2.35 2.22 2.38 2.64 2.94 3.11 3.34 3.26 3.18 2.73 3.00 3.38 3.67 3.95 3.91 3.87 3.69 3.28 2.74 2.53
0.11 0.09 0.05 0.04 0.03 0.04 0.11 0.12 0.19 0.24 0.58 1.04 1.19 1.22 1.15 1.11 1.25 1.54 1.85 1.96 1.86 1.98 1.81 1.78 1.80 1.86 1.74 1.87 2.15 2.41 2.46 2.66 2.82 2.91 3.11 3.32 3.05 2.96 3.07 3.40 3.73 4.02 4.21 4.11 4.20 4.22 3.57 3.10 2.97
0.07 0.04 0.04 0.03 0.03 0.05 0.09 0.11 0.15 0.26 0.57 0.84 1.12 1.11 1.27 1.25 1.36 1.64 2.02 2.26 2.29 2.46 2.25 2.14 2.20 2.21 2.20 2.14 2.29 2.41 2.45 2.63 2.80 2.94 2.92 3.06 3.23 3.30 3.45 3.84 3.82 3.97 4.12 4.48 4.23 4.44 4.06 3.57 3.24
0.04 0.04 0.04 0.04 0.04 0.05 0.09 0.18 0.18 0.29 0.41 0.60 0.87 0.90 0.99 1.30 1.69 2.11 2.53 2.59 2.76 3.03 3.06 2.82 2.55 2.43 2.50 2.67 2.63 2.45 2.59 2.76 2.88 3.09 3.07 3.05 3.36 3.54 3.66 3.80 3.98 3.69 3.74 4.20 4.42 4.21 4.32 4.27 3.92
0.04 0.04 0.05 0.06 0.06 0.08 0.12 0.24 0.31 0.41 0.49 0.54 0.82 1.07 1.13 1.50 1.85 2.44 3.14 3.12 2.95 3.21 3.33 3.07 2.90 2.82 2.89 3.17 3.24 3.06 2.89 3.17 3.20 3.18 3.13 3.21 3.45 3.85 4.05 4.00 4.10 3.85 3.62 3.84 4.10 4.12 4.76 4.58 4.39
0.06 0.07 0.08 0.10 0.12 0.15 0.21 0.44 0.56 0.56 0.52 0.61 0.92 1.25 1.52 1.68 2.01 2.39 2.84 3.25 3.42 3.50 3.41 3.35 3.31 3.28 3.46 3.58 3.51 3.29 3.23 3.14 3.23 3.30 3.37 3.36 3.35 3.80 4.06 4.26 4.22 3.96 3.71 3.94 4.12 4.33 4.61 4.37 4.21
0.07 0.11 0.17 0.17 0.18 0.19 0.29 0.71 0.68 0.56 0.56 0.88 1.08 1.43 1.78 1.85 2.12 2.55 2.95 3.53 3.82 3.81 3.78 3.78 3.59 3.72 3.93 4.03 3.90 3.73 3.61 3.44 3.25 3.19 3.39 3.45 3.55 3.81 4.05 3.99 3.89 3.99 3.92 4.16 4.42 4.54 4.63 4.54 4.35
0.13 0.17 0.21 0.21 0.21 0.19 0.25 0.51 0.64 0.59 0.78 1.07 1.32 1.64 1.95 2.23 2.70 3.21 3.48 3.60 3.96 4.28 4.43 4.48 4.42 4.33 4.34 4.35 4.24 4.28 4.28 4.06 3.71 3.56 3.59 3.67 3.59 3.60 3.83 3.84 3.96 4.02 4.01 4.08 3.74 4.35 4.40 4.52 4.39
0.16 0.16 0.20 0.24 0.20 0.21 0.31 0.46 0.57 0.65 0.87 1.31 1.71 1.95 2.22 2.64 3.16 3.52 3.78 4.13 4.26 4.52 5.04 5.06 4.93 4.96 5.05 5.03 4.74 4.76 4.55 4.29 4.13 4.06 4.17 3.93 3.71 3.54 3.77 3.78 3.94 3.95 4.04 4.11 4.08 4.38 4.35 4.19 4.17
0.14 0.16 0.20 0.24 0.21 0.24 0.41 0.61 0.64 0.82 1.11 1.44 1.82 2.07 2.41 2.76 3.13 3.54 3.62 3.88 4.19 4.80 5.29 5.56 5.66 5.60 5.37 5.08 4.73 4.55 4.55 4.54 4.28 4.03 3.86 3.72 3.58 3.62 4.00 3.89 4.26 4.15 3.94 3.91 4.00 4.28 4.21 3.92 3.97
0.13 0.17 0.21 0.24 0.21 0.23 0.43 0.64 0.72 1.06 1.39 1.45 1.63 1.79 1.98 2.42 2.76 3.10 3.28 3.37 3.79 4.40 4.85 5.06 4.89 4.91 4.77 4.56 4.50 4.48 4.74 4.46 4.17 4.00 3.83 3.53 3.49 3.58 3.59 3.99 3.96 4.00 4.14 4.05 3.99 4.20 4.05 3.64 3.80
0.12 0.12 0.16 0.24 0.24 0.31 0.47 0.86 1.02 1.22 1.36 1.39 1.48 1.63 1.75 2.03 2.35 2.69 2.85 2.98 3.22 3.35 3.65 3.86 4.08 4.10 4.04 4.04 4.02 4.12 4.36 4.21 4.07 3.91 3.80 3.41 3.24 3.23 3.38 3.55 3.75 4.10 3.96 3.97 4.03 3.94 3.88 3.65 3.62
0.12 0.11 0.11 0.17 0.27 0.43 0.58 1.18 1.38 1.32 1.35 1.48 1.47 1.43 1.68 1.97 1.98 2.10 2.37 2.53 2.82 3.00 3.21 3.30 3.40 3.56 3.64 3.76 3.68 3.55 3.45 3.47 3.47 3.53 3.48 3.46 3.30 3.18 3.22 3.35 3.55 3.72 3.50 3.56 3.24 3.36 3.66 3.83 3.58
0.08 0.09 0.11 0.20 0.32 0.45 0.54 0.90 1.29 1.60 1.66 1.45 1.39 1.27 1.48 1.62 1.53 1.52 1.71 1.87 2.15 2.41 2.65 2.81 2.95 3.10 3.36 3.49 3.43 3.38 3.18 3.18 3.27 3.31 3.33 3.33 3.27 3.20 3.15 3.16 3.24 3.26 3.10 3.16 3.09 3.32 3.33 3.35 3.37
0.07 0.11 0.20 0.36 0.54 0.81 0.66 0.81 1.25 1.55 1.80 1.54 1.31 1.23 1.34 1.31 1.27 1.39 1.55 1.66 1.83 2.15 2.35 2.47 2.62 2.72 2.94 3.11 3.21 3.29 3.24 3.15 3.12 3.13 3.13 3.12 3.13 3.04 2.95 2.87 2.92 2.93 2.92 2.97 3.03 3.18 3.07 3.12 3.28
0.09 0.19 0.61 1.01 1.28 1.29 0.83 0.86 1.23 1.21 1.23 1.26 1.21 1.25 1.28 1.21 1.16 1.16 1.26 1.41 1.60 1.86 2.06 2.14 2.26 2.38 2.45 2.57 2.78 2.96 2.94 2.95 2.82 2.75 2.80 2.80 2.62 2.54 2.65 2.55 2.68 2.70 2.76 2.80 2.92 3.00 2.97 3.11 3.27
0.13 0.21 0.68 1.07 1.10 1.10 0.93 1.19 1.53 1.23 1.15 1.07 1.14 1.23 1.22 1.08 1.02 1.04 1.14 1.20 1.30 1.50 1.75 1.84 1.96 2.09 2.25 2.31 2.45 2.60 2.62 2.61 2.45 2.53 2.55 2.47 2.24 2.18 2.39 2.51 2.53 2.52 2.54 2.64 2.92 2.74 2.80 3.02 3.06
0.20 0.22 0.31 0.58 0.67 0.85 1.04 1.34 1.55 1.21 1.15 1.26 1.36 1.33 1.27 1.02 0.88 0.90 0.91 0.96 1.00 1.11 1.30 1.45 1.70 1.86 1.97 2.08 2.22 2.26 2.23 2.33 2.30 2.39 2.52 2.37 2.31 2.17 2.23 2.27 2.38 2.49 2.63 2.81 2.99 2.82 2.92 3.17 3.06
0.18 0.19 0.26 0.51 0.76 0.93 1.03 1.41 1.71 1.62 1.45 1.37 1.43 1.28 1.01 0.84 0.73 0.70 0.70 0.71 0.80 0.93 1.08 1.27 1.45 1.52 1.64 1.87 2.02 1.96 2.18 2.27 2.27 2.28 2.20 2.18 2.23 2.21 2.09 2.05 2.14 2.22 2.35 2.55 2.71 2.61 2.75 3.00 3.00
0.21 0.24 0.33 0.48 0.55 0.79 1.17 1.41 1.36 1.36 1.26 1.29 1.27 1.10 0.88 0.74 0.66 0.67 0.68 0.70 0.78 0.86 1.03 1.23 1.47 1.59 1.60 1.71 1.88 1.98 2.06 2.18 2.20 2.11 2.02 2.06 2.13 2.16 2.08 2.06 2.08 2.09 2.05 2.13 2.29 2.28 2.53 2.59 2.64
0.19 0.22 0.32 0.48 0.47 0.52 0.84 1.12 0.78 0.81 0.81 0.89 0.95 0.82 0.76 0.74 0.69 0.74 0.80 0.80 0.83 0.93 1.09 1.28 1.45 1.63 1.71 1.87 2.13 2.26 2.15 2.12 2.14 2.08 1.96 1.87 1.83 1.92 2.03 2.08 2.01 1.91 1.97 2.12 2.11 2.15 2.40 2.50 2.47

GEFSSGP_prec_meanprecacc_342.txt.gz
Total_Precipitation_Accumulation
0.28 0.55 1.02 1.31 1.82 2.27 1.96 1.54 0.98 0.72 0.72 0.79 0.71 0.70 0.90 1.11 1.61 2.83 2.93 2.65 1.79 1.69 2.03 2.18 2.10 1.82 1.70 1.70 1.85 1.79 1.74 1.81 1.99 2.06 2.13 2.21 2.29 2.27 2.24 2.30 2.57 2.87 3.13 3.26 3.27 3.25 3.24 3.20 3.16
0.46 0.84 1.07 1.31 2.04 2.25 1.89 1.42 0.87 0.71 0.61 0.64 0.68 0.63 0.84 1.02 1.15 1.88 2.39 2.14 1.38 1.26 1.54 1.65 1.78 1.70 1.60 1.47 1.58 1.66 1.59 1.65 1.85 2.16 2.38 2.45 2.58 2.56 2.55 2.61 2.77 2.96 2.99 3.11 3.16 3.11 2.97 2.98 2.95
0.51 0.76 1.01 1.34 1.56 1.61 1.37 0.99 0.59 0.50 0.42 0.45 0.57 0.53 0.82 1.33 1.29 1.67 1.90 1.64 1.25 1.15 1.28 1.51 1.48 1.40 1.47 1.44 1.52 1.62 1.68 1.70 1.73 2.03 2.36 2.58 2.80 2.85 2.90 2.99 3.09 3.15 2.98 2.89 2.96 2.94 2.70 2.74 2.78
0.67 0.86 0.87 0.92 0.94 0.87 0.69 0.60 0.42 0.40 0.39 0.37 0.47 0.68 1.15 1.31 1.26 1.42 1.38 1.24 0.99 0.99 1.05 1.20 1.42 1.40 1.44 1.44 1.46 1.46 1.60 1.77 1.88 2.13 2.43 2.63 2.86 3.04 3.19 3.19 3.25 3.22 3.00 2.91 2.88 2.81 2.66 2.72 2.81
0.79 0.87 0.87 0.65 0.54 0.61 0.53 0.44 0.35 0.40 0.36 0.40 0.50 0.92 1.57 1.54 1.15 1.10 1.11 1.01 0.87 0.84 0.99 1.13 1.36 1.43 1.45 1.40 1.44 1.49 1.57 1.82 2.02 2.10 2.24 2.39 2.60 2.94 3.06 3.04 3.08 2.96 2.81 2.74 2.77 2.78 2.66 2.64 2.77
0.65 0.74 0.69 0.43 0.37 0.46 0.42 0.35 0.34 0.31 0.33 0.45 0.62 0.97 1.60 1.62 1.35 1.28 1.27 1.10 1.03 0.87 0.85 1.06 1.30 1.43 1.43 1.39 1.48 1.58 1.76 1.97 2.13 2.09 2.11 2.21 2.44 2.69 2.70 2.68 2.69 2.65 2.68 2.69 2.73 2.74 2.59 2.48 2.76
0.68 0.60 0.41 0.26 0.26 0.34 0.36 0.31 0.33 0.31 0.38 0.56 0.72 1.11 1.55 1.77 1.55 1.37 1.47 1.54 1.33 1.09 1.00 1.07 1.16 1.22 1.31 1.43 1.54 1.80 2.03 2.15 2.16 2.05 2.05 2.26 2.38 2.42 2.36 2.40 2.44 2.49 2.52 2.58 2.62 2.54 2.43 2.40 2.61
0.33 0.37 0.28 0.17 0.18 0.27 0.26 0.26 0.26 0.31 0.43 0.50 0.68 1.17 1.64 1.61 1.51 1.49 1.65 1.82 1.76 1.42 1.34 1.23 1.24 1.26 1.21 1.39 1.71 1.97 2.15 2.26 2.26 2.22 2.30 2.46 2.54 2.45 2.48 2.42 2.48 2.53 2.63 2.70 2.82 2.78 2.59 2.52 2.54
0.22 0.25 0.21 0.14 0.13 0.19 0.17 0.22 0.27 0.24 0.27 0.44 0.65 0.99 1.16 1.11 1.25 1.49 1.73 1.95 2.16 1.96 1.69 1.52 1.35 1.37 1.48 1.53 1.68 2.13 2.39 2.41 2.41 2.64 2.84 2.97 2.91 2.67 2.81 2.64 2.92 2.98 3.02 3.08 3.20 3.12 2.85 2.70 2.61
0.20 0.18 0.12 0.07 0.07 0.08 0.12 0.19 0.25 0.23 0.41 0.68 0.82 0.95 0.90 1.06 1.18 1.45 1.69 1.86 2.03 2.20 1.81 1.67 1.47 1.43 1.52 1.68 2.09 2.46 2.31 2.45 2.71 3.02 3.18 3.43 3.37 3.28 2.81 3.07 3.43 3.72 4.00 4.00 3.98 3.79 3.36 2.82 2.60
0.14 0.11 0.06 0.04 0.03 0.04 0.11 0.13 0.19 0.24 0.59 1.04 1.20 1.22 1.15 1.11 1.28 1.58 1.88 2.00 1.91 2.02 1.85 1.81 1.83 1.90 1.80 1.94 2.22 2.49 2.53 2.73 2.88 2.97 3.17 3.40 3.13 3.04 3.15 3.49 3.80 4.08 4.28 4.21 4.33 4.38 3.73 3.24 3.11
0.07 0.04 0.04 0.03 0.03 0.05 0.09 0.11 0.15 0.26 0.57 0.84 1.12 1.11 1.27 1.26 1.38 1.68 2.05 2.29 2.32 2.50 2.29 2.17 2.23 2.26 2.27 2.22 2.35 2.47 2.50 2.68 2.85 2.99 2.98 3.13 3.30 3.38 3.53 3.92 3.92 4.08 4.21 4.58 4.33 4.59 4.23 3.71 3.36
0.04 0.04 0.04 0.04 0.04 0.05 0.09 0.18 0.18 0.29 0.41 0.60 0.87 0.90 0.99 1.30 1.71 2.13 2.54 2.60 2.79 3.09 3.10 2.86 2.58 2.47 2.55 2.73 2.69 2.51 2.66 2.82 2.93 3.14 3.12 3.10 3.43 3.63 3.73 3.86 4.06 3.77 3.82 4.29 4.49 4.28 4.47 4.45 4.04
0.04 0.05 0.05 0.06 0.06 0.08 0.12 0.25 0.31 0.41 0.49 0.54 0.82 1.07 1.14 1.50 1.85 2.46 3.16 3.13 2.97 3.25 3.36 3.11 2.94 2.84 2.94 3.22 3.29 3.13 2.97 3.25 3.26 3.25 3.18 3.26 3.52 3.94 4.14 4.07 4.16 3.90 3.67 3.90 4.15 4.17 4.84 4.69 4.49
0.06 0.08 0.09 0.10 0.12 0.15 0.21 0.45 0.57 0.56 0.52 0.61 0.92 1.26 1.52 1.68 2.01 2.40 2.85 3.27 3.44 3.53 3.43 3.37 3.34 3.30 3.50 3.63 3.56 3.34 3.29 3.18 3.28 3.36 3.42 3.42 3.41 3.87 4.13 4.32 4.28 4.01 3.74 3.99 4.16 4.38 4.67 4.43 4.27
0.07 0.13 0.17 0.18 0.18 0.19 0.29 0.74 0.69 0.56 0.56 0.89 1.08 1.43 1.78 1.86 2.12 2.55 2.97 3.55 3.83 3.83 3.81 3.80 3.60 3.75 3.98 4.07 3.94 3.78 3.65 3.47 3.29 3.23 3.43 3.49 3.59 3.85 4.11 4.04 3.95 4.04 3.96 4.22 4.47 4.59 4.67 4.60 4.41
0.14 0.18 0.22 0.22 0.21 0.19 0.25 0.53 0.65 0.59 0.79 1.08 1.33 1.64 1.97 2.24 2.71 3.22 3.50 3.61 3.97 4.31 4.46 4.49 4.44 4.36 4.38 4.40 4.29 4.33 4.32 4.11 3.76 3.61 3.64 3.72 3.63 3.64 3.88 3.88 4.02 4.08 4.07 4.16 3.81 4.41 4.46 4.58 4.44
0.18 0.16 0.20 0.24 0.20 0.21 0.31 0.46 0.57 0.65 0.88 1.32 1.71 1.96 2.24 2.67 3.18 3.54 3.80 4.14 4.27 4.54 5.06 5.08 4.96 4.99 5.09 5.07 4.78 4.79 4.59 4.33 4.17 4.11 4.24 4.00 3.79 3.60 3.84 3.85 4.00 4.02 4.12 4.18 4.15 4.45 4.41 4.27 4.24
0.14 0.16 0.21 0.24 0.21 0.24 0.41 0.61 0.65 0.83 1.12 1.45 1.83 2.08 2.43 2.78 3.14 3.56 3.63 3.88 4.20 4.81 5.30 5.58 5.68 5.63 5.41 5.12 4.78 4.60 4.60 4.58 4.32 4.08 3.91 3.78 3.66 3.70 4.09 3.97 4.34 4.22 4.00 3.96 4.06 4.35 4.27 3.99 4.06
0.13 0.17 0.21 0.25 0.21 0.23 0.43 0.65 0.75 1.07 1.40 1.45 1.64 1.80 2.00 2.44 2.78 3.11 3.29 3.37 3.80 4.41 4.87 5.08 4.91 4.93 4.80 4.60 4.55 4.53 4.79 4.51 4.21 4.04 3.89 3.57 3.53 3.64 3.66 4.07 4.04 4.07 4.19 4.09 4.04 4.26 4.11 3.71 3.89
0.12 0.12 0.17 0.24 0.24 0.31 0.49 0.90 1.07 1.24 1.38 1.40 1.49 1.64 1.76 2.04 2.36 2.70 2.85 2.99 3.23 3.36 3.66 3.88 4.10 4.13 4.07 4.08 4.06 4.16 4.41 4.26 4.12 3.97 3.87 3.46 3.28 3.27 3.43 3.60 3.81 4.16 4.01 4.03 4.10 4.01 3.95 3.71 3.69
0.12 0.11 0.11 0.17 0.28 0.45 0.60 1.21 1.41 1.33 1.37 1.49 1.48 1.44 1.68 1.98 1.98 2.11 2.38 2.54 2.83 3.02 3.23 3.32 3.43 3.60 3.68 3.80 3.72 3.59 3.50 3.51 3.52 3.59 3.53 3.50 3.32 3.21 3.25 3.38 3.58 3.77 3.55 3.62 3.30 3.42 3.72 3.89 3.63
0.09 0.09 0.11 0.21 0.33 0.47 0.56 0.95 1.34 1.62 1.69 1.48 1.40 1.28 1.49 1.63 1.54 1.53 1.73 1.89 2.18 2.44 2.68 2.84 2.98 3.14 3.39 3.52 3.46 3.44 3.23 3.23 3.32 3.36 3.38 3.37 3.30 3.22 3.16 3.18 3.27 3.29 3.13 3.20 3.14 3.39 3.39 3.40 3.41
0.07 0.12 0.20 0.37 0.56 0.84 0.68 0.84 1.30 1.58 1.82 1.58 1.33 1.24 1.35 1.32 1.29 1.40 1.56 1.68 1.85 2.18 2.38 2.50 2.65 2.75 2.97 3.14 3.24 3.34 3.30 3.21 3.18 3.17 3.16 3.14 3.15 3.05 2.97 2.89 2.94 2.96 2.94 3.00 3.06 3.22 3.12 3.17 3.33
0.09 0.20 0.63 1.03 1.32 1.31 0.85 0.87 1.26 1.23 1.25 1.27 1.22 1.26 1.29 1.22 1.17 1.17 1.26 1.42 1.62 1.88 2.08 2.16 2.29 2.40 2.48 2.60 2.81 3.00 3.00 3.00 2.84 2.76 2.81 2.82 2.64 2.55 2.66 2.57 2.70 2.72 2.77 2.82 2.94 3.03 3.01 3.15 3.31
0.13 0.21 0.69 1.09 1.13 1.13 0.94 1.20 1.55 1.25 1.15 1.08 1.14 1.24 1.22 1.09 1.04 1.06 1.16 1.22 1.32 1.52 1.76 1.85 1.98 2.11 2.27 2.33 2.47 2.62 2.64 2.63 2.47 2.56 2.57 2.49 2.25 2.19 2.40 2.53 2.54 2.54 2.57 2.66 2.94 2.77 2.84 3.07 3.11
0.20 0.22 0.32 0.60 0.69 0.86 1.05 1.35 1.59 1.26 1.16 1.27 1.37 1.34 1.28 1.03 0.90 0.92 0.93 0.97 1.01 1.12 1.30 1.45 1.71 1.87 1.99 2.10 2.24 2.29 2.26 2.34 2.32 2.41 2.54 2.38 2.32 2.17 2.25 2.29 2.41 2.53 2.68 2.87 3.04 2.87 2.96 3.22 3.11
0.18 0.19 0.26 0.52 0.77 0.94 1.04 1.44 1.78 1.67 1.46 1.38 1.44 1.29 1.02 0.84 0.75 0.71 0.71 0.71 0.81 0.94 1.08 1.28 1.46 1.53 1.65 1.88 2.04 1.97 2.19 2.28 2.28 2.29 2.21 2.20 2.25 2.22 2.10 2.06 2.16 2.26 2.40 2.62 2.80 2.69 2.83 3.08 3.06
0.21 0.24 0.33 0.49 0.56 0.80 1.19 1.43 1.38 1.37 1.27 1.30 1.28 1.11 0.89 0.75 0.67 0.68 0.68 0.70 0.78 0.86 1.03 1.24 1.47 1.60 1.61 1.72 1.88 1.99 2.07 2.19 2.21 2.13 2.03 2.08 2.15 2.18 2.10 2.08 2.11 2.12 2.09 2.18 2.37 2.37 2.63 2.69 2.72
0.19 0.22 0.32 0.49 0.48 0.54 0.85 1.13 0.80 0.82 0.82 0.90 0.96 0.84 0.79 0.77 0.69 0.75 0.80 0.80 0.83 0.94 1.10 1.29 1.46 1.64 1.72 1.89 2.14 2.27 2.17 2.13 2.16 2.11 1.98 1.89 1.85 1.94 2.05 2.10 2.03 1.93 2.00 2.16 2.17 2.22 2.47 2.57 2.54

GEFSSGP_prec_meanprecacc_348.txt.gz
Total_Precipitation_Accumulation
0.29 0.57 1.09 1.40 1.91 2.36 2.01 1.58 1.01 0.74 0.75 0.83 0.75 0.72 0.91 1.12 1.64 2.90 3.00 2.71 1.83 1.72 2.06 2.21 2.12 1.84 1.73 1.72 1.86 1.82 1.76 1.84 2.02 2.09 2.17 2.25 2.33 2.32 2.30 2.36 2.62 2.91 3.15 3.27 3.29 3.27 3.26 3.22 3.19
0.49 0.91 1.16 1.39 2.12 2.33 1.94 1.47 0.93 0.74 0.64 0.67 0.71 0.66 0.86 1.02 1.17 1.92 2.43 2.18 1.41 1.27 1.54 1.66 1.80 1.71 1.61 1.49 1.59 1.67 1.61 1.67 1.87 2.18 2.40 2.46 2.59 2.58 2.58 2.67 2.82 3.00 3.01 3.13 3.18 3.13 3.01 3.01 2.98
0.58 0.86 1.12 1.47 1.67 1.68 1.42 1.04 0.64 0.53 0.45 0.49 0.60 0.55 0.84 1.34 1.31 1.71 1.93 1.67 1.27 1.16 1.28 1.52 1.50 1.41 1.48 1.46 1.53 1.63 1.70 1.73 1.76 2.05 2.37 2.60 2.81 2.87 2.92 3.02 3.13 3.18 3.00 2.91 2.97 2.97 2.72 2.76 2.82
0.76 0.97 0.98 1.03 1.02 0.93 0.74 0.64 0.47 0.43 0.41 0.39 0.50 0.72 1.19 1.35 1.30 1.45 1.40 1.27 1.01 1.00 1.05 1.21 1.43 1.43 1.46 1.46 1.49 1.49 1.63 1.79 1.91 2.15 2.45 2.66 2.89 3.07 3.22 3.21 3.28 3.25 3.03 2.93 2.90 2.83 2.68 2.74 2.83
0.91 1.07 1.06 0.75 0.60 0.66 0.58 0.46 0.38 0.42 0.37 0.41 0.52 0.96 1.65 1.63 1.20 1.12 1.12 1.03 0.89 0.85 1.00 1.15 1.38 1.47 1.48 1.42 1.47 1.53 1.62 1.86 2.05 2.13 2.28 2.43 2.63 2.97 3.09 3.08 3.11 2.99 2.84 2.77 2.78 2.80 2.68 2.65 2.77
0.78 0.95 0.87 0.52 0.42 0.49 0.45 0.37 0.35 0.33 0.34 0.46 0.64 1.00 1.71 1.71 1.38 1.29 1.29 1.13 1.05 0.87 0.86 1.08 1.32 1.46 1.47 1.43 1.52 1.62 1.81 2.02 2.17 2.11 2.13 2.24 2.47 2.73 2.74 2.72 2.72 2.67 2.70 2.71 2.75 2.76 2.61 2.49 2.76
0.97 0.77 0.52 0.33 0.31 0.36 0.37 0.32 0.34 0.31 0.38 0.56 0.73 1.13 1.63 1.86 1.60 1.41 1.49 1.56 1.34 1.10 1.01 1.08 1.17 1.23 1.34 1.46 1.58 1.84 2.06 2.20 2.21 2.08 2.08 2.27 2.39 2.44 2.39 2.45 2.48 2.53 2.56 2.62 2.65 2.58 2.46 2.43 2.62
0.51 0.49 0.36 0.21 0.20 0.29 0.26 0.26 0.26 0.31 0.43 0.50 0.68 1.18 1.70 1.69 1.56 1.52 1.67 1.83 1.77 1.43 1.35 1.24 1.26 1.28 1.22 1.42 1.76 1.99 2.18 2.30 2.29 2.24 2.32 2.48 2.56 2.47 2.51 2.46 2.52 2.57 2.67 2.75 2.85 2.81 2.62 2.55 2.56
0.32 0.34 0.29 0.18 0.15 0.19 0.18 0.23 0.27 0.24 0.27 0.44 0.65 1.00 1.18 1.14 1.28 1.51 1.76 1.99 2.19 1.98 1.70 1.53 1.37 1.40 1.50 1.54 1.71 2.17 2.43 2.45 2.44 2.67 2.87 3.01 2.93 2.69 2.83 2.66 2.96 3.02 3.06 3.12 3.25 3.16 2.89 2.74 2.65
0.29 0.25 0.16 0.09 0.08 0.09 0.13 0.19 0.26 0.24 0.42 0.68 0.82 0.95 0.90 1.06 1.19 1.48 1.74 1.92 2.08 2.24 1.82 1.68 1.49 1.46 1.54 1.70 2.13 2.52 2.37 2.49 2.75 3.05 3.20 3.44 3.38 3.29 2.82 3.10 3.48 3.77 4.05 4.06 4.04 3.85 3.43 2.89 2.66
0.20 0.15 0.08 0.05 0.04 0.05 0.12 0.13 0.19 0.24 0.59 1.05 1.20 1.22 1.16 1.12 1.29 1.59 1.90 2.03 1.95 2.05 1.87 1.83 1.84 1.91 1.82 1.97 2.28 2.59 2.60 2.77 2.92 3.00 3.19 3.41 3.14 3.05 3.17 3.51 3.83 4.12 4.33 4.27 4.39 4.46 3.80 3.33 3.19
0.09 0.06 0.05 0.04 0.04 0.05 0.10 0.12 0.16 0.26 0.57 0.85 1.13 1.12 1.28 1.26 1.40 1.70 2.08 2.31 2.37 2.54 2.32 2.19 2.25 2.28 2.29 2.24 2.42 2.57 2.56 2.72 2.89 3.01 3.01 3.14 3.31 3.39 3.54 3.94 3.93 4.10 4.24 4.61 4.38 4.66 4.31 3.83 3.47
0.06 0.05 0.05 0.05 0.05 0.05 0.10 0.19 0.19 0.30 0.42 0.61 0.88 0.92 1.00 1.31 1.72 2.14 2.57 2.64 2.84 3.14 3.13 2.88 2.60 2.49 2.57 2.76 2.76 2.59 2.73 2.89 2.98 3.18 3.16 3.12 3.44 3.64 3.75 3.87 4.09 3.80 3.85 4.32 4.52 4.33 4.52 4.53 4.15
0.05 0.05 0.05 0.07 0.07 0.08 0.12 0.25 0.32 0.42 0.49 0.55 0.83 1.09 1.15 1.51 1.86 2.47 3.18 3.15 3.00 3.28 3.40 3.14 2.97 2.87 2.96 3.25 3.36 3.21 3.05 3.35 3.35 3.28 3.20 3.28 3.53 3.95 4.16 4.08 4.17 3.92 3.70 3.92 4.18 4.21 4.89 4.74 4.58
0.08 0.09 0.09 0.11 0.13 0.16 0.22 0.45 0.58 0.57 0.52 0.62 0.93 1.27 1.53 1.69 2.03 2.41 2.86 3.28 3.46 3.56 3.46 3.40 3.36 3.33 3.53 3.66 3.61 3.39 3.32 3.22 3.32 3.42 3.45 3.45 3.44 3.89 4.14 4.33 4.29 4.03 3.77 4.02 4.18 4.40 4.69 4.46 4.33
0.10 0.14 0.18 0.18 0.19 0.20 0.31 0.76 0.70 0.57 0.57 0.89 1.09 1.45 1.79 1.87 2.14 2.56 2.97 3.56 3.85 3.84 3.83 3.83 3.64 3.79 4.02 4.11 3.97 3.81 3.68 3.51 3.33 3.28 3.47 3.53 3.63 3.88 4.13 4.05 3.97 4.07 3.99 4.25 4.50 4.62 4.70 4.61 4.44
0.18 0.20 0.23 0.23 0.23 0.20 0.27 0.55 0.66 0.60 0.80 1.09 1.34 1.68 2.00 2.26 2.72 3.23 3.51 3.63 3.99 4.32 4.47 4.52 4.46 4.38 4.41 4.43 4.32 4.36 4.36 4.14 3.79 3.64 3.69 3.77 3.69 3.69 3.92 3.91 4.04 4.11 4.11 4.21 3.86 4.46 4.51 4.61 4.46
0.21 0.19 0.23 0.27 0.23 0.23 0.33 0.49 0.61 0.67 0.90 1.33 1.73 2.00 2.27 2.69 3.19 3.55 3.81 4.15 4.28 4.55 5.07 5.09 4.97 5.01 5.10 5.10 4.81 4.82 4.62 4.36 4.20 4.15 4.28 4.06 3.85 3.66 3.89 3.90 4.04 4.06 4.17 4.25 4.24 4.52 4.47 4.32 4.27
0.15 0.18 0.23 0.27 0.23 0.25 0.43 0.65 0.71 0.87 1.16 1.49 1.86 2.11 2.45 2.80 3.15 3.58 3.66 3.89 4.21 4.82 5.31 5.59 5.69 5.64 5.42 5.15 4.80 4.62 4.64 4.63 4.37 4.12 3.96 3.83 3.70 3.75 4.14 4.02 4.39 4.28 4.06 4.03 4.12 4.39 4.31 4.04 4.11
0.15 0.19 0.23 0.27 0.23 0.24 0.45 0.69 0.84 1.11 1.43 1.49 1.68 1.84 2.04 2.47 2.80 3.14 3.32 3.39 3.81 4.42 4.88 5.09 4.92 4.95 4.82 4.62 4.57 4.55 4.83 4.55 4.26 4.09 3.94 3.61 3.57 3.67 3.70 4.11 4.08 4.11 4.23 4.14 4.09 4.30 4.14 3.75 3.95
0.13 0.14 0.18 0.26 0.26 0.33 0.51 0.94 1.12 1.28 1.41 1.43 1.52 1.69 1.81 2.10 2.41 2.75 2.89 3.02 3.26 3.38 3.67 3.89 4.11 4.14 4.09 4.11 4.08 4.19 4.44 4.29 4.16 4.02 3.91 3.51 3.32 3.30 3.46 3.64 3.84 4.18 4.04 4.07 4.15 4.06 4.01 3.77 3.74
0.12 0.11 0.12 0.18 0.29 0.48 0.63 1.28 1.49 1.40 1.44 1.53 1.51 1.48 1.72 2.04 2.07 2.18 2.41 2.57 2.85 3.03 3.24 3.34 3.45 3.62 3.70 3.82 3.74 3.61 3.52 3.53 3.56 3.63 3.58 3.55 3.37 3.26 3.28 3.40 3.60 3.79 3.58 3.65 3.35 3.47 3.78 3.95 3.68
0.09 0.09 0.11 0.22 0.36 0.50 0.60 1.02 1.47 1.70 1.75 1.53 1.44 1.32 1.52 1.68 1.63 1.59 1.77 1.93 2.21 2.46 2.69 2.84 2.99 3.15 3.41 3.54 3.48 3.46 3.25 3.26 3.35 3.41 3.43 3.42 3.34 3.25 3.18 3.20 3.28 3.32 3.18 3.26 3.19 3.43 3.42 3.44 3.45
0.07 0.12 0.21 0.39 0.60 0.86 0.72 0.89 1.38 1.68 1.90 1.64 1.37 1.27 1.38 1.35 1.32 1.46 1.62 1.75 1.91 2.21 2.39 2.51 2.67 2.78 3.00 3.16 3.26 3.35 3.32 3.23 3.20 3.18 3.18 3.16 3.17 3.07 2.98 2.90 2.96 2.99 2.99 3.03 3.09 3.25 3.15 3.20 3.36
0.09 0.20 0.63 1.06 1.38 1.35 0.88 0.92 1.32 1.30 1.30 1.35 1.28 1.29 1.31 1.24 1.19 1.23 1.34 1.49 1.67 1.92 2.11 2.18 2.31 2.42 2.50 2.61 2.82 3.01 3.01 3.02 2.86 2.78 2.84 2.84 2.65 2.57 2.68 2.58 2.71 2.75 2.80 2.84 2.96 3.06 3.05 3.19 3.35
0.13 0.22 0.70 1.12 1.18 1.16 0.97 1.24 1.62 1.31 1.19 1.12 1.18 1.26 1.24 1.11 1.09 1.16 1.24 1.27 1.37 1.59 1.85 1.93 2.04 2.15 2.29 2.35 2.48 2.63 2.65 2.65 2.49 2.57 2.58 2.51 2.27 2.20 2.41 2.54 2.56 2.55 2.58 2.67 2.97 2.81 2.89 3.13 3.17
0.20 0.23 0.32 0.62 0.72 0.89 1.07 1.39 1.62 1.29 1.21 1.32 1.40 1.37 1.31 1.06 0.95 0.99 0.98 1.01 1.06 1.19 1.38 1.52 1.76 1.93 2.04 2.13 2.25 2.30 2.27 2.35 2.33 2.43 2.55 2.39 2.33 2.18 2.25 2.30 2.42 2.54 2.69 2.88 3.09 2.92 3.03 3.30 3.20
0.19 0.20 0.27 0.53 0.79 0.98 1.06 1.47 1.81 1.71 1.50 1.41 1.47 1.32 1.06 0.91 0.82 0.77 0.75 0.77 0.85 0.97 1.13 1.35 1.52 1.56 1.68 1.90 2.06 1.99 2.21 2.29 2.29 2.32 2.23 2.21 2.26 2.23 2.11 2.08 2.17 2.28 2.42 2.64 2.83 2.73 2.88 3.14 3.13
0.21 0.25 0.34 0.51 0.58 0.84 1.21 1.45 1.39 1.39 1.29 1.32 1.29 1.12 0.91 0.81 0.78 0.74 0.73 0.77 0.81 0.87 1.05 1.27 1.52 1.66 1.66 1.76 1.94 2.04 2.11 2.22 2.25 2.17 2.06 2.10 2.18 2.20 2.11 2.09 2.13 2.14 2.11 2.20 2.38 2.39 2.66 2.72 2.76
0.19 0.22 0.32 0.50 0.50 0.56 0.87 1.17 0.82 0.85 0.85 0.93 0.97 0.85 0.82 0.81 0.76 0.80 0.85 0.82 0.84 0.95 1.12 1.32 1.50 1.68 1.76 1.93 2.19 2.32 2.22 2.19 2.22 2.15 2.02 1.92 1.88 1.97 2.07 2.12 2.06 1.96 2.03 2.19 2.20 2.25 2.49 2.59 2.55

GEFSSGP_prec_meanprecacc_354.txt.gz
Total_Precipitation_Accumulation
0.29 0.59 1.13 1.45 1.95 2.39 2.04 1.60 1.06 0.79 0.82 0.85 0.75 0.73 0.94 1.15 1.67 2.92 3.01 2.72 1.84 1.73 2.07 2.23 2.16 1.87 1.75 1.75 1.90 1.86 1.81 1.89 2.07 2.16 2.23 2.30 2.38 2.38 2.40 2.55 2.71 2.97 3.20 3.31 3.32 3.31 3.32 3.28 3.24
0.50 0.93 1.20 1.43 2.16 2.35 1.96 1.50 0.98 0.79 0.69 0.69 0.72 0.68 0.90 1.06 1.19 1.94 2.45 2.20 1.42 1.27 1.55 1.68 1.84 1.75 1.64 1.51 1.62 1.69 1.64 1.70 1.91 2.23 2.44 2.50 2.64 2.62 2.65 2.84 2.95 3.06 3.05 3.16 3.20 3.17 3.06 3.06 3.02
0.60 0.88 1.14 1.50 1.70 1.72 1.44 1.08 0.69 0.59 0.49 0.51 0.61 0.57 0.87 1.37 1.33 1.73 1.95 1.69 1.28 1.16 1.28 1.54 1.54 1.46 1.52 1.48 1.56 1.66 1.73 1.76 1.79 2.08 2.39 2.63 2.85 2.90 2.98 3.11 3.22 3.23 3.05 2.93 3.00 3.01 2.77 2.80 2.85
0.77 0.98 1.00 1.04 1.04 0.95 0.76 0.67 0.49 0.47 0.43 0.41 0.50 0.73 1.21 1.37 1.32 1.46 1.42 1.29 1.01 1.01 1.07 1.24 1.47 1.48 1.51 1.50 1.53 1.54 1.69 1.83 1.93 2.18 2.48 2.70 2.93 3.11 3.28 3.26 3.33 3.29 3.06 2.96 2.92 2.86 2.71 2.76 2.85
0.92 1.09 1.07 0.76 0.62 0.70 0.60 0.48 0.40 0.45 0.39 0.43 0.53 0.98 1.69 1.66 1.21 1.13 1.14 1.04 0.89 0.86 1.01 1.18 1.41 1.49 1.52 1.47 1.51 1.58 1.69 1.91 2.09 2.16 2.30 2.45 2.66 3.01 3.16 3.12 3.14 3.01 2.87 2.79 2.80 2.82 2.71 2.67 2.79
0.80 0.97 0.88 0.53 0.44 0.51 0.48 0.39 0.37 0.35 0.36 0.48 0.66 1.04 1.77 1.74 1.39 1.31 1.31 1.14 1.06 0.87 0.86 1.09 1.34 1.48 1.51 1.47 1.58 1.70 1.90 2.09 2.22 2.15 2.16 2.27 2.51 2.78 2.82 2.77 2.76 2.70 2.74 2.74 2.78 2.79 2.64 2.52 2.79
1.00 0.79 0.54 0.34 0.32 0.38 0.38 0.34 0.36 0.33 0.40 0.58 0.75 1.16 1.69 1.89 1.62 1.42 1.50 1.57 1.35 1.11 1.02 1.09 1.18 1.24 1.37 1.50 1.64 1.90 2.13 2.25 2.25 2.12 2.11 2.31 2.45 2.51 2.46 2.51 2.53 2.58 2.61 2.66 2.67 2.60 2.50 2.48 2.68
0.55 0.50 0.37 0.23 0.21 0.30 0.28 0.27 0.28 0.32 0.45 0.52 0.70 1.21 1.76 1.73 1.57 1.53 1.68 1.84 1.78 1.44 1.36 1.25 1.27 1.28 1.24 1.46 1.82 2.05 2.22 2.34 2.32 2.26 2.35 2.52 2.61 2.53 2.58 2.53 2.61 2.66 2.75 2.81 2.90 2.84 2.68 2.62 2.62
0.34 0.35 0.30 0.19 0.17 0.20 0.18 0.23 0.28 0.26 0.30 0.47 0.68 1.03 1.23 1.17 1.30 1.53 1.77 2.00 2.21 1.99 1.72 1.55 1.38 1.41 1.52 1.58 1.79 2.22 2.46 2.49 2.47 2.69 2.91 3.03 2.95 2.73 2.89 2.71 3.02 3.09 3.14 3.20 3.33 3.24 2.96 2.82 2.73
0.32 0.28 0.17 0.10 0.10 0.10 0.14 0.20 0.26 0.24 0.43 0.70 0.84 0.98 0.93 1.10 1.23 1.51 1.76 1.93 2.10 2.26 1.85 1.69 1.50 1.46 1.56 1.73 2.20 2.56 2.40 2.53 2.78 3.07 3.23 3.46 3.39 3.31 2.86 3.14 3.54 3.82 4.11 4.14 4.14 4.00 3.58 3.02 2.77
0.21 0.16 0.08 0.06 0.05 0.06 0.12 0.13 0.19 0.25 0.60 1.06 1.21 1.25 1.19 1.17 1.33 1.63 1.93 2.05 1.97 2.06 1.89 1.84 1.86 1.93 1.85 2.01 2.33 2.63 2.62 2.80 2.94 3.01 3.20 3.42 3.15 3.07 3.19 3.54 3.87 4.15 4.38 4.34 4.48 4.58 3.97 3.49 3.31
0.10 0.06 0.06 0.05 0.04 0.05 0.10 0.12 0.16 0.26 0.57 0.85 1.14 1.13 1.28 1.28 1.43 1.74 2.11 2.35 2.40 2.55 2.32 2.19 2.26 2.30 2.32 2.29 2.46 2.60 2.58 2.73 2.90 3.03 3.02 3.15 3.32 3.40 3.55 3.95 3.95 4.12 4.27 4.65 4.42 4.72 4.42 3.97 3.62
0.06 0.05 0.05 0.06 0.05 0.06 0.10 0.19 0.20 0.31 0.42 0.62 0.88 0.92 1.00 1.32 1.73 2.16 2.60 2.67 2.88 3.16 3.15 2.91 2.63 2.51 2.60 2.81 2.81 2.63 2.76 2.90 3.00 3.20 3.18 3.13 3.45 3.65 3.76 3.89 4.11 3.82 3.87 4.34 4.55 4.38 4.57 4.60 4.27
0.07 0.06 0.05 0.07 0.08 0.09 0.13 0.26 0.33 0.43 0.50 0.56 0.83 1.09 1.15 1.51 1.87 2.48 3.20 3.18 3.05 3.33 3.45 3.24 3.11 2.97 3.03 3.31 3.43 3.30 3.14 3.40 3.37 3.30 3.23 3.31 3.55 3.96 4.17 4.10 4.19 3.94 3.73 3.96 4.22 4.26 4.94 4.82 4.69
0.08 0.09 0.09 0.11 0.14 0.16 0.22 0.46 0.58 0.58 0.54 0.63 0.94 1.28 1.54 1.70 2.03 2.42 2.89 3.30 3.49 3.61 3.52 3.46 3.44 3.42 3.61 3.74 3.70 3.48 3.40 3.28 3.37 3.46 3.49 3.50 3.47 3.92 4.18 4.36 4.33 4.06 3.81 4.05 4.23 4.45 4.73 4.50 4.40
0.10 0.15 0.19 0.19 0.20 0.21 0.32 0.77 0.72 0.59 0.59 0.92 1.11 1.46 1.81 1.88 2.14 2.58 2.99 3.58 3.89 3.89 3.87 3.87 3.70 3.86 4.08 4.19 4.07 3.90 3.73 3.54 3.36 3.30 3.49 3.56 3.65 3.92 4.17 4.10 4.01 4.11 4.05 4.33 4.57 4.68 4.75 4.65 4.48
0.19 0.20 0.23 0.24 0.24 0.21 0.28 0.56 0.67 0.62 0.83 1.12 1.36 1.70 2.01 2.27 2.73 3.25 3.53 3.65 4.02 4.36 4.51 4.55 4.49 4.42 4.47 4.51 4.40 4.43 4.40 4.16 3.81 3.67 3.71 3.79 3.72 3.73 3.97 3.95 4.08 4.17 4.19 4.30 3.93 4.52 4.57 4.66 4.49
0.21 0.19 0.23 0.27 0.24 0.23 0.34 0.50 0.64 0.71 0.94 1.36 1.75 2.01 2.28 2.69 3.20 3.57 3.84 4.18 4.32 4.59 5.11 5.14 5.02 5.06 5.17 5.17 4.87 4.87 4.66 4.38 4.22 4.17 4.32 4.09 3.89 3.70 3.93 3.93 4.08 4.11 4.22 4.30 4.28 4.57 4.51 4.36 4.31
0.16 0.18 0.24 0.28 0.23 0.26 0.44 0.65 0.72 0.90 1.20 1.51 1.87 2.12 2.46 2.81 3.17 3.61 3.68 3.92 4.25 4.86 5.36 5.63 5.73 5.69 5.48 5.21 4.85 4.65 4.66 4.65 4.38 4.16 4.01 3.89 3.76 3.81 4.18 4.05 4.44 4.32 4.09 4.06 4.16 4.43 4.35 4.07 4.14
0.15 0.20 0.24 0.28 0.24 0.25 0.46 0.70 0.85 1.12 1.44 1.50 1.69 1.86 2.06 2.49 2.81 3.16 3.34 3.42 3.84 4.45 4.91 5.12 4.94 4.97 4.85 4.65 4.59 4.58 4.85 4.57 4.28 4.11 3.98 3.66 3.63 3.72 3.73 4.14 4.12 4.15 4.26 4.16 4.12 4.33 4.17 3.77 3.98
0.13 0.14 0.19 0.27 0.27 0.34 0.53 0.95 1.13 1.29 1.43 1.44 1.53 1.70 1.83 2.12 2.42 2.76 2.90 3.04 3.27 3.40 3.69 3.90 4.12 4.16 4.11 4.13 4.10 4.20 4.46 4.31 4.17 4.04 3.94 3.54 3.36 3.34 3.50 3.67 3.87 4.21 4.06 4.09 4.18 4.11 4.05 3.80 3.77
0.13 0.12 0.13 0.19 0.30 0.49 0.65 1.29 1.50 1.41 1.45 1.55 1.53 1.50 1.74 2.05 2.08 2.19 2.42 2.58 2.86 3.05 3.25 3.35 3.46 3.64 3.72 3.84 3.77 3.64 3.55 3.56 3.58 3.66 3.61 3.59 3.42 3.31 3.32 3.44 3.63 3.81 3.61 3.68 3.38 3.51 3.82 3.99 3.71
0.09 0.10 0.12 0.23 0.37 0.51 0.61 1.03 1.48 1.71 1.76 1.54 1.45 1.33 1.53 1.69 1.64 1.60 1.79 1.94 2.21 2.47 2.70 2.85 3.01 3.18 3.44 3.59 3.54 3.51 3.30 3.29 3.37 3.44 3.48 3.47 3.39 3.29 3.22 3.24 3.31 3.34 3.21 3.28 3.21 3.45 3.45 3.47 3.47
0.08 0.13 0.21 0.40 0.61 0.86 0.72 0.89 1.39 1.68 1.91 1.65 1.38 1.28 1.39 1.35 1.33 1.47 1.63 1.75 1.91 2.22 2.40 2.53 2.68 2.81 3.04 3.22 3.33 3.40 3.35 3.25 3.21 3.22 3.24 3.22 3.22 3.11 3.02 2.95 2.98 3.00 3.00 3.05 3.11 3.26 3.17 3.21 3.37
0.09 0.21 0.64 1.07 1.38 1.35 0.88 0.92 1.32 1.31 1.31 1.36 1.29 1.29 1.32 1.24 1.20 1.25 1.35 1.50 1.69 1.94 2.12 2.19 2.32 2.43 2.51 2.63 2.84 3.03 3.04 3.04 2.88 2.81 2.86 2.86 2.68 2.59 2.70 2.61 2.73 2.76 2.80 2.84 2.97 3.09 3.08 3.22 3.37
0.14 0.22 0.70 1.12 1.18 1.16 0.97 1.24 1.62 1.31 1.20 1.13 1.19 1.27 1.25 1.12 1.11 1.18 1.25 1.28 1.38 1.60 1.86 1.94 2.05 2.16 2.30 2.36 2.50 2.65 2.67 2.67 2.51 2.60 2.61 2.53 2.29 2.21 2.43 2.56 2.58 2.57 2.59 2.68 2.99 2.83 2.91 3.16 3.20
0.21 0.23 0.33 0.62 0.72 0.89 1.07 1.39 1.62 1.29 1.22 1.32 1.41 1.38 1.32 1.08 0.96 1.00 0.98 1.02 1.06 1.20 1.39 1.53 1.77 1.94 2.07 2.19 2.30 2.33 2.29 2.38 2.37 2.46 2.59 2.42 2.36 2.20 2.28 2.32 2.44 2.56 2.71 2.90 3.10 2.93 3.05 3.33 3.23
0.19 0.20 0.28 0.54 0.80 0.98 1.06 1.47 1.81 1.71 1.51 1.42 1.48 1.34 1.08 0.92 0.83 0.78 0.75 0.77 0.86 0.99 1.15 1.36 1.52 1.57 1.70 1.94 2.09 2.02 2.24 2.33 2.33 2.35 2.29 2.26 2.31 2.27 2.14 2.10 2.20 2.31 2.44 2.66 2.84 2.74 2.90 3.17 3.15
0.21 0.25 0.35 0.52 0.59 0.84 1.21 1.45 1.39 1.39 1.29 1.33 1.30 1.12 0.92 0.82 0.78 0.75 0.74 0.78 0.82 0.88 1.06 1.28 1.53 1.67 1.67 1.77 1.95 2.08 2.16 2.27 2.28 2.20 2.09 2.14 2.21 2.24 2.15 2.13 2.17 2.18 2.15 2.24 2.42 2.42 2.67 2.73 2.77
0.19 0.22 0.33 0.51 0.50 0.56 0.88 1.17 0.82 0.85 0.86 0.94 0.98 0.86 0.82 0.82 0.77 0.81 0.85 0.83 0.85 0.96 1.12 1.32 1.51 1.69 1.77 1.95 2.21 2.35 2.24 2.21 2.24 2.18 2.05 1.96 1.93 2.02 2.11 2.16 2.08 1.98 2.05 2.22 2.25 2.29 2.52 2.61 2.57